GFSNE_925_thetae_000.txt.gz
Theta_e
289 290 291 291 290 291 291 290 290 292 293 293 292 292 292 292 293 294 297 298 300 300 300 300 298 297 299 298 298 300 304 309 309 309 309 308 306 304
290 290 288 287 286 286 288 291 291 290 291 290 291 291 290 291 291 292 293 294 297 299 299 299 296 296 296 296 297 297 297 301 307 308 306 305 300 296
287 286 286 285 285 285 284 285 289 291 291 290 290 289 289 289 289 290 292 293 294 295 296 298 297 296 295 294 294 294 296 294 296 297 298 297 297 297
286 285 285 285 284 284 284 284 286 286 289 289 288 288 288 287 287 288 290 291 293 293 294 296 296 294 294 294 293 293 292 293 294 294 293 293 293 294
285 284 282 281 281 281 282 284 285 285 287 287 286 286 286 286 286 286 287 289 290 292 292 293 295 296 294 293 293 293 292 292 292 292 292 292 292 292
283 283 281 280 281 282 284 285 285 286 286 286 285 285 285 284 284 285 286 287 287 289 291 291 291 294 294 293 293 292 292 292 291 291 292 292 292 291
283 282 280 280 281 282 283 284 284 284 284 284 284 283 283 283 284 284 284 284 285 288 288 288 288 289 290 291 292 292 292 292 292 292 292 291 291 291
282 281 280 280 280 281 281 282 283 283 283 283 283 282 283 283 283 283 283 283 284 285 286 285 286 287 287 288 290 291 292 291 291 292 292 292 292 292
281 280 280 279 280 280 280 281 281 282 282 282 282 283 283 283 283 283 282 283 283 285 285 285 285 285 285 286 287 289 289 289 289 289 289 290 290 291
280 279 279 279 279 279 280 281 281 281 282 282 281 281 282 282 282 282 283 283 283 284 284 284 284 285 285 285 286 287 287 288 288 288 287 287 286 287
278 278 278 278 279 280 280 280 280 279 279 280 282 282 282 283 283 283 283 283 283 282 283 283 283 283 283 284 286 286 286 286 286 286 286 286 286 286
277 277 277 278 278 280 280 280 279 279 278 278 279 279 279 280 280 281 282 283 283 282 283 283 283 283 284 284 284 285 286 287 286 287 287 286 287 288
276 277 277 278 279 278 279 279 279 280 279 279 278 278 278 279 279 280 280 280 281 282 283 283 284 284 284 285 285 285 285 285 285 286 287 287 287 288
276 276 277 277 277 278 278 278 279 279 279 279 279 279 279 280 281 281 282 282 282 282 282 283 284 284 284 284 284 285 285 285 286 287 287 287 287 288
276 277 276 276 276 277 277 277 277 277 278 278 279 279 280 281 281 281 281 282 282 283 283 284 284 284 284 284 284 285 285 285 285 286 287 286 287 286
276 276 275 275 275 276 276 276 277 277 277 278 278 279 280 281 281 282 283 283 284 284 285 285 285 284 285 285 285 285 285 285 286 285 286 286 285 285
275 275 275 275 274 274 274 275 276 276 276 277 278 279 280 280 281 282 283 284 283 284 285 286 286 286 285 285 284 284 284 285 285 285 285 285 285 285
274 274 274 274 274 274 273 274 274 275 275 276 277 278 278 280 281 281 282 283 283 284 283 284 286 286 285 285 285 285 285 284 284 285 285 284 284 286
274 274 274 274 273 273 273 273 273 273 274 275 275 276 277 279 280 281 281 282 282 283 283 283 284 286 286 283 285 284 284 284 283 284 284 285 285 285
273 273 273 273 272 272 272 272 272 272 272 273 274 275 276 277 279 279 280 280 281 281 281 283 283 283 283 280 282 284 283 282 283 283 284 285 284 285
274 273 273 273 272 271 271 271 271 270 271 272 273 274 275 276 277 278 279 279 279 279 279 280 282 283 283 283 281 283 282 282 281 281 282 282 282 283
275 274 273 272 272 271 271 271 271 270 270 271 272 273 274 275 275 277 278 278 278 278 278 281 282 283 283 282 282 282 282 281 281 281 280 280 281 279
276 275 274 273 272 271 271 270 270 269 269 270 271 273 273 273 275 275 276 276 277 277 278 279 281 282 282 281 282 282 282 281 281 281 281 281 280 280

GFSNE_925_thetae_003.txt.gz
Theta_e
289 289 289 288 286 285 285 285 289 288 288 290 291 289 290 289 291 292 293 295 294 296 301 300 301 299 299 299 299 300 298 300 307 308 310 310 308 305
288 288 287 286 286 285 285 284 284 288 288 289 290 290 290 289 288 290 293 294 293 294 298 296 299 300 299 299 296 297 298 296 300 306 306 305 306 301
287 286 285 285 284 283 283 283 283 284 286 287 287 289 289 288 289 288 290 292 292 293 294 296 295 298 296 297 295 295 296 295 294 297 300 302 301 299
285 285 284 283 282 281 281 281 282 283 284 285 288 288 287 287 287 288 287 289 291 292 293 293 294 295 296 296 295 293 293 294 294 294 294 295 295 295
285 284 283 282 280 280 280 281 282 283 284 284 285 287 287 286 286 286 286 286 288 290 292 292 292 293 295 296 294 293 292 292 292 292 292 292 293 293
284 283 282 280 280 280 281 282 283 283 283 283 284 285 285 285 284 285 285 285 286 288 288 289 291 291 293 295 294 292 292 292 292 291 291 292 292 292
284 283 281 280 281 280 281 281 281 282 283 283 283 283 283 283 284 284 283 283 284 284 286 287 287 289 289 291 291 292 292 292 292 291 291 291 291 291
282 281 280 280 279 279 280 280 281 281 282 282 283 283 282 282 283 283 283 283 282 284 285 285 286 286 286 287 289 290 291 292 292 291 291 291 291 291
281 279 278 279 278 278 278 279 280 281 281 282 282 282 282 282 283 283 282 282 282 283 284 284 284 285 286 286 286 289 289 290 290 291 291 291 291 291
277 277 277 277 278 278 279 279 280 279 279 280 281 281 281 281 281 282 282 282 282 283 283 284 283 284 284 285 286 286 287 287 287 288 288 288 289 289
276 276 277 277 277 279 279 280 280 279 279 279 279 280 281 282 282 282 282 282 282 282 283 283 283 283 283 284 284 286 286 286 286 286 286 287 286 286
276 276 276 277 278 278 279 279 279 278 279 279 279 279 279 279 280 281 281 282 283 282 283 283 283 283 283 284 284 284 285 286 286 286 286 286 287 286
276 275 276 277 278 278 278 278 278 279 278 278 279 278 278 279 279 279 279 279 280 281 282 283 283 283 284 284 285 285 286 285 285 285 286 287 287 287
275 275 276 276 277 277 277 277 277 277 277 278 278 279 279 280 280 280 281 281 280 280 280 281 282 283 283 283 284 284 285 285 285 285 285 287 287 287
275 276 275 275 275 275 276 276 276 276 276 277 277 278 279 280 280 281 281 281 281 282 282 282 282 283 283 283 284 284 284 285 285 285 286 287 286 286
274 274 274 274 274 273 274 275 275 275 276 276 277 278 279 280 281 281 282 282 282 283 284 284 284 283 283 284 283 283 284 285 285 285 285 286 286 286
274 274 273 273 273 273 273 273 274 274 274 275 276 277 278 279 281 282 282 283 283 283 284 285 285 285 284 284 284 284 283 283 284 285 285 284 285 285
273 273 273 273 272 272 272 272 272 272 273 274 275 275 277 278 280 281 281 282 282 282 283 283 283 284 284 284 284 284 284 283 284 283 284 284 284 284
273 273 273 273 272 272 271 271 271 271 272 273 274 274 276 277 279 279 280 281 281 282 282 283 283 284 286 284 284 284 284 284 284 283 282 282 283 284
273 273 272 272 272 271 271 271 270 270 271 272 273 274 275 275 277 277 278 278 279 279 280 281 282 282 282 278 281 283 282 282 282 283 283 283 283 284
275 274 273 272 272 271 271 271 270 269 270 272 273 273 274 274 275 276 277 278 278 278 278 280 281 282 283 282 280 282 282 282 281 282 282 282 282 282
276 275 274 273 272 271 270 270 270 269 269 270 272 273 273 273 274 275 276 276 276 276 277 279 281 282 282 282 281 280 281 281 280 280 280 280 280 276
277 276 275 274 273 272 271 270 270 269 269 269 271 272 272 272 273 274 275 275 275 276 276 278 280 280 281 281 281 282 281 281 281 281 281 280 280 279

GFSNE_925_thetae_009.txt.gz
Theta_e
290 290 289 289 289 288 287 287 287 288 288 286 285 285 285 285 286 287 290 290 289 294 295 296 298 300 301 301 298 298 298 299 302 307 310 311 311 309
289 290 289 288 287 286 286 285 284 284 286 284 283 283 283 284 285 286 289 290 289 289 295 294 295 297 298 300 300 299 299 299 298 306 308 311 310 309
289 288 287 286 286 285 284 283 283 283 283 283 282 283 284 284 285 286 289 290 290 288 291 293 293 293 295 298 300 299 299 299 300 301 307 306 306 304
288 286 286 285 285 284 283 283 282 282 282 282 283 283 284 285 285 286 288 289 289 289 287 290 291 291 292 296 298 298 297 295 296 298 302 305 303 304
286 285 285 284 284 284 282 282 282 281 281 282 282 282 283 284 285 286 287 288 288 287 288 288 290 291 291 293 296 296 295 295 295 297 301 302 303 303
284 284 284 283 282 282 282 282 281 281 280 280 281 282 282 283 284 285 286 287 286 286 286 287 287 290 291 293 295 295 294 293 294 295 295 297 298 298
284 283 281 281 280 280 280 280 280 280 280 281 281 281 282 282 284 284 285 286 285 285 286 286 288 288 289 292 292 295 293 293 293 293 294 296 295 292
280 280 279 278 279 278 278 278 279 279 280 281 282 281 281 282 283 284 283 285 286 285 285 286 286 287 287 288 290 291 293 292 292 292 292 292 292 292
279 278 278 278 278 278 278 279 280 280 279 280 281 281 281 281 282 283 283 283 284 285 284 285 285 285 286 286 289 290 291 292 292 291 291 291 291 291
278 278 278 278 278 278 279 279 279 279 279 280 280 281 280 280 281 282 282 282 282 283 283 284 284 285 285 285 285 287 288 289 290 292 292 292 291 291
278 278 277 277 277 278 278 279 278 278 279 279 279 279 280 280 280 280 281 282 283 283 283 283 283 284 284 285 285 285 287 287 287 288 288 288 289 289
278 277 277 276 277 277 277 278 277 279 278 278 278 279 279 280 279 279 280 282 283 283 283 283 283 284 285 285 285 285 286 286 287 287 286 286 287 289
277 276 277 276 276 276 276 276 277 277 277 277 278 279 279 280 280 280 280 280 281 282 282 283 284 284 284 286 286 286 285 286 287 287 286 286 286 287
277 276 276 275 275 275 275 275 275 276 276 277 278 279 279 280 280 280 281 281 280 281 282 282 282 283 284 284 285 285 286 286 286 286 287 286 286 286
276 275 274 274 274 274 274 274 274 275 276 276 277 278 278 279 280 281 281 281 281 281 281 281 281 282 282 283 284 285 285 286 285 286 287 287 287 287
276 275 274 274 273 273 274 273 273 273 274 275 276 277 278 279 281 282 282 283 283 283 282 281 282 282 282 282 283 284 284 285 286 286 286 285 285 286
275 275 274 274 274 274 274 273 272 272 273 274 275 276 277 279 280 281 282 283 284 284 285 283 283 283 283 283 284 284 284 284 284 285 284 285 286 287
276 276 275 274 274 274 273 273 273 271 271 273 274 275 276 278 279 280 281 282 283 284 284 283 284 284 284 284 284 286 285 285 284 284 284 285 286 286
277 277 276 275 274 273 273 273 272 271 270 272 273 274 275 276 278 279 279 280 281 281 282 282 283 285 287 288 284 283 285 285 285 285 285 284 285 285
277 277 276 275 275 274 273 272 272 271 270 271 272 272 273 275 277 277 278 278 279 280 281 281 282 282 284 286 286 283 283 284 284 285 284 283 283 283
279 278 277 276 275 274 273 272 271 271 270 270 271 272 272 273 275 275 276 276 276 278 279 280 280 280 280 281 283 284 282 281 282 283 283 283 284 284
279 278 278 276 276 274 273 272 271 272 271 271 270 271 271 272 273 274 275 276 276 276 277 278 279 280 282 283 283 282 282 280 281 281 281 282 283 284
280 279 278 277 276 275 274 273 272 271 271 270 270 271 271 271 272 273 274 274 275 275 275 277 278 279 281 281 281 282 281 281 282 282 281 280 280 280

GFSNE_925_thetae_012.txt.gz
Theta_e
291 290 290 290 289 289 289 289 289 291 290 288 287 287 287 286 286 286 286 288 288 291 289 293 295 296 298 299 301 300 302 305 308 309 308 308 313 314
290 290 290 289 289 288 288 288 288 287 291 287 286 286 286 286 286 287 287 286 287 290 289 291 293 293 293 295 299 300 298 298 299 304 308 310 309 311
290 290 290 289 288 288 288 287 287 286 287 286 285 285 285 285 286 286 287 287 288 290 289 288 291 292 292 293 296 299 299 299 299 299 304 307 310 309
290 289 289 288 288 287 287 287 286 285 285 285 284 284 284 284 285 285 286 287 290 290 290 288 288 290 291 291 293 297 298 299 299 299 300 304 308 308
289 289 288 287 287 286 285 285 284 284 284 284 283 283 283 284 284 285 285 287 288 289 288 288 289 288 289 291 293 295 296 297 298 298 301 301 304 305
288 288 287 285 285 284 283 283 283 283 283 282 282 282 283 283 284 285 286 287 288 288 287 286 287 288 288 291 292 294 296 296 296 296 299 301 303 304
286 285 284 282 280 280 280 281 281 281 281 282 282 283 283 283 284 284 285 285 286 288 287 287 288 289 290 291 292 292 294 294 294 295 295 299 302 303
284 283 282 281 281 279 280 279 279 280 281 281 282 283 282 283 283 283 284 285 286 287 287 287 288 288 289 289 289 290 292 292 293 293 295 295 294 293
283 282 282 281 281 281 280 280 281 281 280 280 281 281 282 282 282 282 283 284 285 285 285 286 286 287 287 288 287 289 291 292 292 292 293 293 294 295
282 281 281 281 281 279 279 280 280 280 280 280 280 280 281 281 282 282 282 282 283 283 284 285 286 286 287 287 287 286 289 290 291 291 292 292 292 291
281 281 279 279 279 278 278 279 279 280 280 279 279 279 279 280 280 280 281 282 284 284 284 285 285 286 286 287 287 286 286 289 288 290 291 292 291 291
281 280 279 278 277 277 277 278 278 279 278 279 279 279 280 280 280 280 281 281 283 284 284 284 285 285 286 286 287 287 287 286 289 287 287 288 289 291
281 280 279 277 277 276 276 277 277 276 277 278 279 280 280 281 281 282 282 282 282 283 284 284 284 285 285 287 287 287 288 289 288 288 288 287 287 289
280 280 278 276 276 275 275 275 275 276 278 278 279 280 281 281 281 282 282 282 282 282 283 283 283 285 286 287 287 287 287 288 288 289 289 289 287 286
279 278 276 275 276 276 276 275 275 276 277 278 279 279 280 281 281 282 282 282 283 282 282 282 283 283 284 284 285 286 287 287 288 288 289 289 289 288
280 279 277 276 277 276 277 277 276 275 276 277 278 279 280 281 282 283 284 285 284 284 283 282 282 283 283 284 284 285 286 287 287 287 288 288 288 289
278 279 280 279 278 278 278 277 276 275 275 276 278 278 279 280 281 282 283 284 286 286 286 284 283 283 284 284 285 284 285 285 286 287 287 287 287 287
279 280 281 280 279 278 278 277 277 276 274 275 277 278 278 279 280 281 282 283 284 285 286 285 286 285 285 284 284 287 286 286 286 285 285 286 287 287
280 281 281 280 279 278 278 277 277 276 274 274 276 276 277 278 279 280 280 281 282 283 284 284 285 286 288 288 286 284 286 287 286 285 285 285 286 287
280 281 281 280 280 279 278 277 276 276 275 274 274 275 276 277 278 279 279 279 280 281 282 283 284 284 284 285 287 284 283 286 286 286 286 286 286 285
282 282 281 281 280 279 278 277 276 275 274 274 275 274 275 275 277 277 278 278 278 280 280 281 281 280 282 283 285 285 283 283 284 285 286 286 285 285
282 282 282 281 280 279 278 278 277 276 276 275 275 274 275 274 275 276 277 277 278 278 279 280 281 281 283 284 286 284 284 282 282 282 283 283 284 287
283 282 282 281 280 279 278 278 277 276 276 274 274 274 274 275 275 275 275 276 277 277 278 279 281 282 283 283 283 285 283 283 283 283 282 281 281 280

GFSNE_925_thetae_015.txt.gz
Theta_e
293 293 292 292 291 291 290 290 291 293 291 290 290 289 288 288 288 287 288 288 288 288 287 288 290 290 294 293 294 298 300 301 304 308 310 311 310 311
292 292 292 292 291 290 290 290 290 290 292 289 289 288 287 287 287 287 287 287 287 288 288 287 289 291 293 292 292 294 298 300 299 299 303 307 309 309
292 292 292 291 291 290 290 289 289 289 290 289 288 287 286 286 286 286 286 286 287 288 289 290 290 290 290 291 291 292 296 298 300 299 299 302 307 308
292 292 291 290 290 289 288 288 288 287 287 287 286 286 285 285 285 285 286 286 287 287 289 290 289 289 288 289 290 291 292 297 299 299 299 299 303 307
291 291 290 289 289 287 287 286 285 285 285 285 285 285 284 284 285 285 285 286 286 287 288 289 288 289 289 288 290 292 293 295 297 297 299 299 300 305
291 290 288 287 286 285 283 283 283 284 283 283 283 283 284 284 284 285 285 285 286 287 288 289 289 288 287 289 291 292 293 294 296 296 297 299 300 303
289 288 286 285 283 281 281 281 282 282 282 282 282 283 283 284 284 284 285 285 285 286 287 289 289 289 290 291 291 290 291 293 294 295 297 298 299 302
287 286 285 284 283 282 282 281 280 280 281 282 282 282 282 283 283 284 284 284 285 286 286 286 288 289 289 290 288 288 289 291 292 294 294 295 296 300
286 285 284 283 283 283 282 281 281 281 281 282 282 282 282 282 282 283 283 284 284 284 285 286 286 287 288 289 288 287 287 290 291 293 294 295 295 292
284 284 283 283 282 280 279 280 280 281 281 281 281 281 280 280 280 280 281 282 282 283 284 285 285 286 288 288 288 287 287 288 291 291 293 293 292 292
284 283 282 281 280 278 278 279 279 280 280 280 279 280 280 280 280 280 281 282 283 283 284 285 285 286 286 287 287 287 287 286 289 291 291 291 292 291
284 283 282 280 278 278 278 278 278 279 278 278 279 280 280 281 281 281 282 282 283 283 284 285 286 286 286 286 287 287 287 286 288 289 291 289 291 292
283 283 282 280 278 277 277 277 278 276 277 279 280 280 281 282 283 283 283 283 283 283 283 284 285 285 286 287 288 288 288 289 288 288 288 290 291 291
282 282 281 279 277 277 277 277 276 276 278 279 280 281 281 281 282 282 283 283 283 283 283 283 284 284 286 287 288 288 288 289 290 290 289 289 287 289
281 281 280 279 278 279 279 278 277 279 278 278 279 280 280 281 282 283 284 284 283 283 283 283 283 284 284 285 286 287 287 288 289 289 290 290 289 289
282 282 280 280 280 280 280 280 279 279 277 278 279 279 280 281 282 282 283 284 286 285 284 283 283 283 284 284 285 286 287 288 288 288 289 290 290 290
281 281 282 282 281 281 281 280 280 279 278 277 278 279 279 280 281 281 282 283 285 287 286 284 283 283 284 284 284 285 285 287 287 288 289 289 289 289
281 282 282 283 282 281 281 280 280 279 279 277 277 278 278 279 280 281 282 282 283 284 286 286 285 284 284 284 284 286 286 286 286 286 287 288 288 288
281 282 283 283 282 281 281 280 280 279 277 278 277 277 277 278 279 280 281 281 282 282 283 284 285 286 288 287 287 284 286 287 287 287 286 286 287 287
282 282 283 283 282 282 281 281 280 279 278 277 277 277 277 277 278 279 280 280 280 281 282 283 284 283 283 285 286 284 283 284 287 287 286 286 286 286
283 284 284 283 283 282 281 280 279 278 278 277 277 277 277 277 277 277 278 279 279 280 281 281 281 281 282 283 285 285 283 283 285 285 287 287 287 286
284 284 284 283 283 282 281 281 280 279 279 278 278 277 277 277 277 276 277 278 279 279 279 280 281 282 283 284 286 285 285 283 282 283 284 284 284 287
284 284 284 283 283 283 281 280 280 279 279 278 277 277 276 276 277 277 277 277 277 277 278 279 281 283 284 283 283 286 284 284 283 283 282 282 282 282

GFSNE_925_thetae_018.txt.gz
Theta_e
295 294 293 293 292 292 292 291 291 289 289 290 290 289 289 288 287 287 287 286 287 287 287 287 288 289 290 291 292 294 294 295 299 302 301 303 309 312
294 293 292 293 292 291 291 290 290 290 289 289 289 289 288 286 286 286 286 286 285 286 286 287 288 289 289 290 291 292 292 292 296 299 299 300 302 306
294 292 292 292 291 290 290 290 289 288 287 287 287 287 286 285 285 285 285 285 285 286 287 287 288 289 289 289 289 290 290 291 292 296 299 299 300 301
293 292 292 291 290 290 289 287 286 285 285 285 285 285 284 284 284 284 285 285 285 285 286 287 288 289 289 288 289 288 290 292 292 295 297 298 299 299
291 291 291 289 288 287 286 284 283 284 284 283 283 283 283 283 283 284 285 285 285 285 286 286 287 289 289 288 288 288 291 291 292 295 296 297 299 299
291 290 289 287 286 285 283 282 282 282 282 282 282 282 282 283 283 283 283 284 284 284 285 286 287 288 289 288 288 288 291 290 293 294 295 296 297 299
289 288 287 286 285 284 283 282 282 281 281 281 281 282 282 282 282 283 283 283 284 284 285 285 286 287 288 289 290 290 288 288 291 293 294 295 297 298
287 287 286 285 284 283 283 282 281 281 281 281 281 281 282 282 282 282 282 282 283 283 283 284 284 286 286 289 290 288 287 287 291 292 294 295 297 298
287 285 285 284 283 283 282 281 280 280 281 281 281 282 282 281 280 280 280 280 281 282 282 282 283 284 285 287 288 287 287 287 290 291 294 294 294 295
286 285 284 283 282 281 280 278 279 279 280 280 279 279 279 280 280 280 280 280 281 281 282 282 284 284 285 286 287 287 287 287 287 291 294 294 293 293
285 284 284 283 281 281 279 278 278 278 279 278 277 279 280 280 281 281 281 281 281 282 282 283 284 285 285 286 285 287 287 287 287 289 292 293 292 292
284 284 283 282 280 280 278 278 278 278 277 277 278 280 280 281 282 282 282 281 282 282 283 283 284 285 285 286 287 287 287 287 286 288 289 291 292 291
283 283 283 282 281 279 278 277 278 277 277 278 279 279 281 281 281 281 282 283 283 283 283 283 283 284 285 286 287 287 288 288 288 288 289 288 290 291
281 282 282 281 280 279 279 279 278 278 278 278 278 279 280 280 281 281 282 283 284 283 283 283 283 283 285 285 287 288 288 288 289 289 289 289 288 290
282 281 281 281 281 280 280 280 279 279 279 278 278 279 279 280 280 281 281 282 283 284 283 283 283 283 284 284 285 285 286 288 289 289 290 289 291 290
282 282 282 281 282 282 282 281 281 280 279 279 277 278 278 279 280 280 281 282 283 284 285 284 283 283 283 284 284 284 285 286 288 289 289 290 289 289
283 282 281 282 283 282 282 281 281 280 280 278 277 277 278 278 279 279 281 282 282 283 285 285 284 283 283 284 284 284 285 285 287 287 288 289 289 289
282 281 282 282 283 282 282 282 281 280 279 278 278 277 278 277 278 279 280 281 281 281 282 283 285 283 283 283 283 283 285 285 286 285 287 288 288 288
281 281 281 282 283 283 282 282 281 280 279 279 278 277 278 277 277 278 279 280 280 280 281 282 283 283 285 286 286 284 284 286 286 286 286 286 286 287
281 282 282 283 283 283 282 282 281 280 279 278 277 277 278 277 277 277 277 279 279 279 281 281 281 281 281 282 284 284 284 285 284 287 286 286 285 286
283 282 282 283 283 283 282 282 281 280 279 278 278 278 278 277 277 277 277 277 278 279 279 279 280 281 282 283 284 284 283 283 285 286 286 287 286 286
284 284 283 284 284 284 283 282 281 280 279 279 279 278 277 277 277 278 277 277 277 277 278 278 280 281 283 284 284 285 283 282 283 283 284 285 286 285
284 284 284 283 283 283 283 282 281 280 280 279 278 277 277 276 276 277 277 277 276 276 275 276 279 281 282 283 283 284 283 283 283 282 282 282 283 283

GFSNE_925_thetae_021.txt.gz
Theta_e
295 295 294 293 292 292 291 291 290 285 288 289 288 288 287 287 287 286 285 284 285 285 284 286 287 287 288 289 290 290 291 292 293 295 295 298 301 302
295 294 293 292 292 291 291 290 289 288 285 287 286 285 286 285 285 284 284 284 284 284 285 285 286 287 288 288 290 290 291 291 292 294 294 296 299 302
294 294 293 292 291 290 289 288 286 285 284 284 284 284 283 283 283 283 283 283 285 285 285 285 286 287 287 288 288 289 290 290 291 293 294 295 297 300
292 292 291 291 290 288 287 286 285 283 283 282 282 282 282 282 282 282 283 282 283 284 284 285 285 286 286 287 288 289 288 288 289 291 291 292 296 297
291 291 290 289 288 286 285 284 283 282 282 281 281 281 281 281 281 282 282 282 283 283 283 284 285 285 286 287 288 289 288 289 290 289 292 294 295 296
289 289 288 287 286 285 284 283 282 282 282 281 280 280 281 281 282 281 282 282 281 281 283 284 283 284 284 287 288 288 288 289 289 289 292 294 295 295
288 287 286 286 285 284 283 283 282 282 281 281 280 280 280 281 281 281 281 280 280 280 281 281 282 282 283 285 288 289 289 287 287 290 291 293 294 295
287 287 286 285 284 283 283 282 281 280 280 280 280 280 281 281 281 280 280 279 279 279 280 280 281 281 282 284 286 287 287 287 287 289 291 293 294 295
287 286 285 284 284 283 282 281 280 278 279 279 279 278 278 278 279 279 279 279 279 280 280 280 281 282 283 284 284 286 287 287 287 287 290 293 294 294
286 286 285 284 283 282 282 280 278 277 277 279 279 277 278 279 280 280 280 280 280 281 280 281 282 282 283 285 284 285 286 287 287 287 290 292 294 292
285 285 284 283 282 281 280 280 277 277 277 278 278 279 279 280 281 281 282 281 280 281 281 281 283 283 283 285 285 286 286 286 286 287 289 290 293 291
284 284 283 283 281 281 281 279 277 278 278 278 278 278 278 280 280 280 281 282 282 282 282 283 283 283 284 285 285 286 286 287 287 287 288 289 291 290
284 283 282 282 282 281 280 279 279 279 278 278 278 277 278 279 279 280 280 281 282 283 283 282 283 283 283 284 285 285 286 287 287 287 288 288 290 290
283 282 281 282 282 281 280 280 280 279 279 279 278 278 277 278 279 279 280 280 281 282 283 283 283 283 283 283 284 284 284 288 288 289 288 287 289 291
284 282 282 281 282 281 281 281 280 280 280 279 279 277 277 278 278 278 279 281 281 282 283 284 283 283 283 283 283 284 284 285 287 288 289 289 288 289
284 283 282 282 281 282 282 281 281 281 280 280 278 278 277 277 277 278 279 280 281 281 283 285 284 284 283 282 283 284 284 284 286 288 289 289 288 289
284 283 282 282 281 282 282 281 281 281 280 279 278 278 277 277 277 277 279 280 280 280 281 283 284 284 283 283 283 283 283 284 285 286 288 289 289 289
284 283 283 281 281 281 282 282 281 281 280 279 278 278 277 277 277 277 278 279 279 279 280 282 281 283 284 283 283 282 283 283 285 285 285 288 288 288
282 282 281 281 281 281 283 282 281 281 280 279 278 278 277 277 277 277 277 277 278 278 280 281 281 281 280 281 284 284 283 283 285 286 286 286 286 287
283 282 281 281 281 281 282 282 282 281 280 279 278 277 277 278 277 277 277 277 277 278 278 278 279 280 281 278 282 283 283 284 285 284 286 286 285 285
283 282 282 282 282 282 282 283 282 281 281 279 278 278 278 277 277 276 277 277 276 277 277 277 277 280 281 283 283 283 283 283 284 285 286 286 285 285
283 283 283 283 283 283 284 284 282 282 281 280 279 278 278 277 277 276 277 277 276 276 276 276 279 280 282 283 284 284 282 282 283 283 284 286 286 283
285 284 283 283 283 283 283 284 283 282 281 280 279 278 277 277 276 276 277 277 276 276 275 275 277 279 281 281 282 283 283 282 282 282 282 282 283 284

GFSNE_925_thetae_024.txt.gz
Theta_e
295 294 294 294 292 292 292 290 289 284 286 288 287 286 285 285 285 284 284 283 284 284 284 286 286 286 287 287 288 289 289 291 291 292 292 293 294 295
294 294 294 292 292 291 291 289 288 286 285 285 285 283 282 282 282 283 282 282 282 284 284 285 285 286 286 287 287 288 289 290 291 291 291 292 294 295
294 294 293 292 292 291 290 289 287 285 283 283 282 282 281 280 281 281 281 282 283 282 283 284 285 284 286 286 287 288 288 290 290 291 290 292 293 294
292 292 291 291 290 289 288 286 285 283 282 281 281 281 280 280 281 281 281 281 282 282 283 283 284 285 286 286 286 287 288 289 290 290 290 291 291 293
291 290 290 289 289 287 285 284 283 282 282 281 281 280 280 280 280 281 281 281 281 281 280 281 281 284 284 284 285 286 287 289 288 288 288 289 290 292
290 289 288 287 286 285 284 283 282 282 282 281 280 280 280 280 280 280 281 280 280 279 279 279 281 281 281 281 284 284 289 289 288 288 288 287 289 290
288 288 287 286 285 284 283 283 282 281 280 279 279 280 280 280 280 280 280 279 279 279 279 280 280 280 280 281 283 285 286 288 288 286 287 289 290 291
287 287 287 286 285 284 283 282 281 280 279 279 279 279 279 278 277 278 279 279 280 280 280 280 280 281 281 281 283 284 284 286 287 287 287 288 289 291
287 287 286 285 284 283 282 282 281 280 277 277 278 278 277 277 279 278 279 279 280 281 280 280 281 281 282 282 283 284 284 285 287 287 286 287 288 292
286 286 285 285 284 283 282 282 281 281 277 277 278 278 278 279 279 280 280 281 281 281 280 280 281 282 282 282 284 284 285 285 285 286 286 287 288 291
286 285 285 284 283 282 281 281 281 279 278 278 278 278 278 278 280 280 280 280 280 281 281 281 281 282 282 283 284 286 286 286 286 286 287 288 289 290
285 285 284 284 283 281 282 281 280 279 279 279 279 279 278 277 278 278 279 280 280 281 282 282 282 282 282 283 282 284 285 285 287 286 287 288 289 289
285 284 283 282 282 282 282 281 280 279 279 279 279 279 278 277 278 278 278 279 279 280 281 281 283 282 282 283 283 284 284 284 287 287 288 288 289 289
286 285 283 282 281 282 281 281 281 281 280 280 279 279 278 277 277 277 278 279 280 280 281 282 282 283 282 282 283 283 283 284 285 286 288 288 288 289
287 286 284 282 281 281 281 281 281 281 281 280 280 279 278 277 277 277 278 279 280 280 281 282 283 282 283 283 283 282 284 283 284 286 288 287 288 289
286 285 284 282 282 282 281 281 282 281 281 280 280 279 278 277 277 277 278 279 279 279 281 282 282 283 283 283 282 283 283 283 284 286 288 288 288 288
286 285 283 282 282 282 282 281 282 282 281 281 280 278 278 277 277 277 277 277 278 278 279 281 281 283 283 282 282 282 282 283 284 285 286 287 287 288
286 284 284 283 282 283 282 281 281 282 281 281 279 278 278 277 277 277 277 276 277 278 279 279 280 280 281 283 283 283 283 282 285 285 285 287 287 288
285 282 282 283 283 283 281 281 281 282 281 280 279 278 277 277 277 277 277 277 276 277 278 278 278 279 279 274 282 283 283 283 284 286 285 286 286 286
285 283 283 283 282 281 281 281 281 282 281 280 279 278 277 277 277 277 277 277 276 276 277 276 276 277 278 280 281 282 281 283 284 284 285 285 285 286
284 283 282 283 283 282 282 281 281 282 282 281 280 279 278 277 277 277 276 277 277 276 276 275 277 280 280 281 281 282 281 282 284 285 285 285 285 285
285 284 283 283 283 283 283 282 282 282 282 281 281 279 279 278 277 276 276 277 277 276 275 275 278 280 281 282 283 282 281 282 283 284 284 285 285 282
285 284 284 283 284 284 283 283 282 283 283 282 282 280 279 278 277 276 276 277 276 276 275 275 277 278 279 280 281 283 282 282 281 282 282 282 283 284

GFSNE_925_thetae_027.txt.gz
Theta_e
295 294 294 294 294 292 291 291 290 285 285 288 288 287 285 283 282 281 282 281 283 283 283 284 285 286 286 287 287 288 288 289 289 290 292 292 293 293
294 294 294 293 292 292 291 290 289 289 287 287 285 283 282 281 280 281 280 281 281 283 282 283 284 285 285 285 286 287 287 287 288 289 291 292 292 292
293 293 293 293 293 292 291 289 288 286 283 284 283 282 282 281 280 280 280 281 281 281 282 283 283 283 283 285 286 286 286 287 287 288 290 291 291 291
293 292 292 291 291 290 289 288 286 284 283 282 282 282 281 280 280 280 280 280 280 280 281 281 281 281 282 285 284 284 285 285 287 288 289 290 290 290
292 291 291 290 290 289 287 285 284 283 282 281 281 281 279 279 279 280 280 280 280 280 279 280 280 280 281 282 283 283 283 285 287 288 289 289 288 289
291 290 290 289 287 286 285 284 283 282 282 281 280 279 279 279 279 279 279 279 279 279 280 280 280 281 281 281 280 281 283 285 286 287 289 288 287 287
290 289 288 287 286 285 285 284 283 282 281 279 279 279 278 278 278 277 277 278 279 280 280 280 280 281 281 281 281 281 282 285 286 287 287 287 286 287
289 288 287 286 286 285 284 283 282 281 280 279 278 278 277 278 277 278 278 278 279 280 280 280 280 280 281 282 282 282 283 284 285 285 286 287 287 286
290 288 287 286 285 285 283 282 281 280 280 278 277 277 278 278 278 278 279 279 280 280 280 280 280 281 282 282 283 284 284 284 285 285 285 286 286 286
288 287 286 286 285 284 283 282 281 280 281 278 278 278 278 279 278 279 280 279 279 279 280 280 281 281 282 282 283 284 284 285 286 286 286 286 286 287
288 287 286 285 285 284 283 282 281 281 279 278 278 278 279 278 278 278 278 278 279 279 279 280 281 281 282 282 283 282 284 284 285 285 286 286 287 287
288 286 286 285 284 283 282 281 281 280 279 279 279 279 279 279 278 277 278 278 278 279 280 280 280 281 282 282 283 282 284 283 284 285 286 286 287 287
287 286 286 285 284 282 281 281 281 280 280 280 280 280 279 279 278 277 277 277 277 278 279 280 280 281 282 282 282 282 283 283 284 284 286 287 287 287
288 287 287 285 284 282 282 281 281 281 281 281 280 280 280 279 277 277 276 277 278 279 279 280 280 282 282 282 281 282 282 283 283 284 286 288 287 287
288 288 286 285 284 282 282 282 281 281 281 281 281 280 280 279 277 277 276 278 278 279 279 281 280 281 282 282 282 282 282 283 283 284 285 287 287 287
288 288 287 285 283 282 282 282 282 281 282 281 281 280 280 279 277 277 277 276 277 278 280 280 280 280 282 282 282 282 282 283 282 284 285 286 286 287
288 287 284 283 283 282 282 282 282 281 282 282 281 281 279 278 277 277 276 277 276 276 278 278 279 280 281 283 282 282 282 282 283 285 285 287 287 288
286 284 283 282 282 282 282 282 282 281 281 282 281 280 279 278 277 277 276 276 276 276 277 277 277 278 280 282 282 282 282 282 283 285 286 286 286 287
285 284 283 283 284 283 283 282 283 282 281 282 281 280 279 277 276 277 276 276 277 276 276 276 276 277 278 278 280 281 281 282 283 285 285 285 285 286
286 284 283 284 284 282 283 283 282 282 281 281 282 280 279 277 276 277 276 276 276 276 276 276 276 276 277 279 279 280 281 282 283 284 284 284 285 286
286 285 285 284 283 283 282 283 283 281 281 281 282 280 280 278 277 277 277 276 276 276 275 275 276 278 279 279 279 281 281 282 282 283 284 284 284 285
286 285 285 284 283 283 282 282 283 282 281 281 281 281 280 278 278 277 276 276 276 276 275 275 277 279 279 281 281 281 280 281 282 283 282 283 284 282
286 285 285 285 284 283 282 281 282 283 282 281 281 282 281 279 278 277 276 276 276 276 275 275 276 277 277 279 280 281 280 281 281 281 282 282 283 284

GFSNE_925_thetae_030.txt.gz
Theta_e
296 294 294 293 293 293 292 291 290 290 287 289 288 288 287 284 282 281 280 280 281 282 282 283 283 284 284 285 286 287 287 288 288 289 289 290 291 293
293 293 293 293 293 292 292 291 290 289 288 289 287 286 283 282 282 280 280 280 280 280 282 282 283 283 284 283 284 284 285 286 287 287 288 288 290 291
292 292 293 293 293 292 291 291 289 288 286 285 284 283 282 282 280 279 279 280 280 280 281 281 282 282 282 282 282 283 286 285 286 286 286 287 288 290
293 292 292 292 292 291 291 290 289 287 284 282 282 282 282 281 279 279 279 279 279 279 280 280 281 281 281 282 282 283 284 284 284 285 286 287 289 289
293 292 292 291 291 290 289 288 287 285 283 281 281 281 280 279 278 278 279 278 278 279 279 280 280 281 281 282 282 282 282 283 283 284 286 286 288 289
292 292 291 291 290 289 287 286 285 283 282 281 281 280 279 278 278 278 277 278 278 279 280 280 280 280 281 281 281 282 282 283 283 284 286 285 288 288
292 291 291 289 288 287 286 285 284 283 282 281 280 279 278 277 278 277 277 278 278 279 280 279 280 280 281 282 282 282 282 282 283 284 286 286 287 287
292 291 290 289 287 286 285 285 284 283 281 280 279 278 277 277 278 278 277 278 279 279 280 279 280 280 281 281 282 282 283 284 284 284 286 286 285 286
292 291 289 288 286 286 285 284 283 282 281 280 280 278 277 278 278 278 278 278 279 279 279 279 279 280 281 281 282 283 284 284 285 285 286 286 286 286
292 290 289 288 287 286 285 284 283 281 281 280 280 278 278 278 279 278 278 278 278 278 278 279 279 280 280 281 282 283 283 283 283 284 285 285 285 286
291 290 289 287 287 286 284 283 283 282 281 280 279 279 279 279 279 278 277 277 277 278 278 278 280 280 280 282 282 282 282 283 283 284 284 285 286 286
290 290 288 287 286 285 284 283 282 282 281 280 279 279 279 279 279 278 277 277 277 277 279 278 279 280 281 281 282 282 282 282 282 283 283 284 286 286
289 289 289 287 286 285 284 283 282 281 281 280 280 280 280 280 279 278 277 277 276 277 277 278 279 279 280 281 282 282 282 282 282 283 283 284 286 286
288 289 289 289 286 285 284 283 282 281 281 280 281 281 280 280 279 278 277 276 277 277 278 278 278 279 280 281 282 282 282 282 282 283 283 285 285 286
288 288 288 287 286 286 284 283 282 282 281 281 281 281 280 280 279 278 277 276 276 277 277 278 279 279 279 281 283 282 281 282 282 282 284 285 286 286
288 288 288 287 287 285 285 283 282 282 282 281 280 281 281 280 279 278 277 276 276 276 277 278 278 277 278 279 281 282 282 282 282 283 285 286 286 286
288 287 286 285 284 283 283 283 282 282 281 281 280 281 281 280 279 278 276 276 276 276 276 276 277 277 279 280 282 282 282 282 283 284 285 286 285 286
286 285 284 283 282 282 281 281 281 281 283 282 281 281 281 280 279 277 276 276 276 276 276 276 276 276 278 280 281 281 281 282 282 284 285 285 285 286
286 285 284 283 282 282 283 282 281 283 284 283 282 280 281 280 278 277 276 276 276 276 276 276 275 276 278 278 278 280 280 282 282 283 284 284 284 284
286 286 285 284 282 283 283 282 283 282 283 283 282 280 281 280 279 277 276 276 276 276 276 276 275 275 276 278 278 279 281 281 281 282 283 284 285 285
286 285 286 285 284 283 283 283 282 282 283 283 281 280 281 280 279 278 277 276 275 275 276 275 275 276 278 278 278 279 281 281 281 282 283 283 284 284
285 286 286 285 285 284 283 283 282 281 281 282 281 280 281 280 280 279 277 276 275 276 276 275 275 277 278 280 281 281 280 281 281 282 282 282 282 284
273 277 285 286 285 284 284 283 282 281 281 281 281 280 281 280 280 279 278 276 275 276 275 275 276 276 277 278 279 280 280 281 281 281 281 281 282 283

GFSNE_925_thetae_033.txt.gz
Theta_e
295 296 295 295 294 294 294 293 294 294 293 292 290 290 289 287 285 284 283 282 280 282 282 282 283 284 284 284 285 286 286 286 287 288 289 290 290 291
295 295 295 294 294 293 293 293 292 292 293 290 290 289 287 285 284 283 282 281 281 281 281 282 282 283 283 283 283 284 284 284 285 287 288 288 289 289
294 293 294 293 293 293 293 292 292 291 291 290 288 286 285 284 283 282 281 281 281 281 281 281 281 282 282 282 282 282 283 283 284 286 287 287 287 287
294 294 293 293 293 293 292 292 291 290 289 288 287 285 284 283 282 281 281 280 281 280 280 281 281 281 282 282 282 283 283 283 283 284 285 285 285 286
293 293 293 293 293 292 291 291 290 288 287 286 285 284 283 282 281 281 280 281 280 280 280 280 281 281 281 282 282 283 283 283 283 283 283 284 285 286
293 293 293 293 292 292 291 290 288 287 286 285 284 284 283 282 281 280 281 280 280 280 280 280 281 281 281 282 282 282 283 283 283 283 283 284 284 285
293 293 293 292 292 291 290 289 287 286 285 285 284 284 283 282 281 280 280 280 280 281 281 281 281 281 282 282 282 282 282 283 284 284 284 284 284 286
293 293 292 291 291 290 288 287 286 286 285 284 284 283 283 282 280 280 280 280 281 281 281 281 281 282 282 282 282 282 282 283 285 285 285 285 285 286
293 292 291 290 290 288 287 286 285 284 284 284 283 283 282 280 280 280 280 280 280 280 280 280 281 282 282 282 282 282 282 283 284 284 284 285 285 285
291 292 291 290 289 288 286 286 286 285 283 282 282 282 281 279 280 280 280 280 280 280 280 280 281 282 282 282 283 282 282 283 283 283 283 284 284 285
291 291 290 290 289 289 285 285 285 284 282 282 281 281 279 279 280 280 280 280 280 280 280 280 281 281 282 283 283 283 282 282 282 282 282 283 284 284
290 290 290 290 289 288 286 286 285 285 283 282 281 280 279 280 280 280 280 280 280 280 280 279 280 280 281 282 283 284 284 284 283 283 283 283 284 284
289 289 289 290 289 288 287 285 285 285 283 282 282 281 281 281 281 280 280 279 279 279 279 279 279 280 281 281 282 283 284 284 284 284 284 284 284 284
289 289 288 289 289 288 287 286 286 284 283 282 282 282 281 281 281 280 280 279 279 278 278 278 279 279 280 281 282 283 284 284 284 284 283 284 285 285
289 289 289 288 288 287 286 285 286 284 283 283 283 282 282 281 281 280 279 279 278 278 278 278 279 279 280 281 282 282 284 284 284 284 284 285 285 285
288 288 288 288 288 286 285 285 285 284 284 283 283 283 282 281 281 280 280 279 278 279 278 278 278 279 279 280 281 283 284 283 284 284 284 285 286 285
286 286 286 286 286 285 284 284 285 284 283 283 283 282 281 281 281 280 280 279 278 279 279 279 278 278 278 279 281 283 283 283 284 284 284 285 286 285
284 285 287 287 286 285 285 284 284 284 284 283 282 282 282 281 281 280 279 278 278 279 279 279 278 279 280 281 280 282 282 282 283 284 285 285 286 285
284 285 287 287 287 286 284 284 285 284 283 282 282 282 281 281 281 281 280 279 279 278 278 278 278 279 281 282 282 280 281 282 283 284 285 285 285 284
281 284 285 286 287 285 283 283 284 284 283 282 282 282 281 281 281 280 280 279 279 278 278 278 278 278 279 281 280 281 280 281 282 284 285 285 285 285
276 276 276 279 286 286 284 283 283 283 283 282 282 281 281 281 281 281 280 278 278 278 278 279 277 276 278 279 280 282 282 281 281 282 283 285 285 286
273 273 274 275 277 286 284 284 283 283 283 282 281 281 280 280 281 280 280 280 278 278 278 278 277 278 279 281 282 283 282 282 281 282 282 282 283 286
270 271 271 271 274 274 279 284 284 284 283 282 281 280 280 280 280 281 280 279 278 277 277 277 277 278 279 280 281 282 282 282 282 283 281 282 282 282

GFSNE_925_thetae_036.txt.gz
Theta_e
300 299 298 297 297 296 296 295 296 297 297 295 294 293 292 291 290 288 287 286 285 283 283 283 283 283 284 284 285 285 285 286 286 287 288 288 289 290
299 298 297 296 296 295 295 295 295 294 296 294 293 292 292 290 288 286 286 285 284 283 283 282 282 282 283 283 283 284 284 284 285 285 286 286 288 289
298 297 297 296 295 295 295 294 294 294 294 293 292 291 290 289 287 287 286 284 284 283 283 282 282 282 282 282 282 283 283 284 284 284 285 285 286 288
297 297 296 296 296 295 295 294 294 293 293 292 291 290 289 288 287 286 285 284 283 284 282 282 281 281 282 282 283 283 283 283 284 284 284 284 285 286
296 296 296 296 296 295 295 294 293 293 292 291 290 289 289 287 287 286 285 284 284 283 282 282 282 282 282 282 282 283 283 284 284 284 284 284 284 284
295 295 296 296 295 295 294 294 293 292 292 291 290 289 288 287 286 285 285 284 284 283 283 283 283 283 283 283 283 283 284 284 284 284 284 284 283 284
295 295 295 295 295 295 294 294 293 292 291 290 290 289 288 287 286 285 284 284 284 283 283 284 283 283 284 284 284 284 284 283 283 284 284 285 285 284
295 295 295 295 294 293 292 292 292 292 291 290 289 288 287 286 286 284 284 284 284 284 283 283 283 283 284 284 284 283 283 283 283 284 285 285 285 285
294 294 294 294 294 293 293 291 290 289 288 288 289 288 287 286 285 283 283 283 283 283 282 283 283 283 284 284 284 283 284 283 283 283 284 284 284 284
293 293 293 293 293 293 292 292 290 290 288 286 286 286 286 285 284 283 283 283 283 283 283 283 283 283 284 284 284 284 284 283 283 283 284 284 283 283
292 292 292 292 293 293 292 292 291 291 289 287 286 285 284 283 282 281 282 283 283 283 283 283 283 283 283 283 285 285 284 284 284 284 283 283 283 283
291 291 291 291 291 291 291 290 290 291 290 287 284 283 282 282 281 281 282 283 283 283 283 282 282 282 283 283 284 284 284 285 285 285 285 284 284 285
291 291 291 291 290 290 289 289 290 290 289 288 287 286 285 284 283 283 282 283 283 283 282 281 281 281 282 282 282 283 284 285 285 285 286 285 285 285
289 290 291 291 290 290 288 287 287 288 288 288 286 286 285 285 284 284 283 283 282 282 281 281 281 281 281 281 282 283 284 284 285 285 286 285 285 286
286 286 287 288 288 288 288 288 287 286 287 287 286 286 286 285 285 284 283 282 282 282 280 280 281 281 281 281 282 282 284 284 285 285 285 286 286 286
282 283 284 284 285 287 288 288 287 287 287 287 287 286 286 284 284 283 283 283 282 282 281 281 281 280 280 281 281 282 283 285 285 285 285 285 286 285
279 282 283 285 285 287 288 288 288 287 287 286 286 287 286 285 284 284 283 282 282 282 282 282 281 281 280 280 281 282 284 284 284 284 285 286 287 285
280 284 285 286 286 286 287 288 287 286 287 287 286 286 286 285 284 284 283 282 282 282 282 282 282 281 282 283 282 283 283 283 283 284 286 287 287 285
280 281 281 282 282 284 287 288 288 287 286 286 286 286 285 285 284 284 283 282 282 282 282 281 281 281 283 284 284 282 282 282 283 285 286 286 287 285
277 278 278 278 279 281 280 286 287 286 286 286 286 285 285 285 285 284 283 283 282 282 282 281 282 281 281 282 282 282 281 282 283 284 285 286 286 285
275 275 275 276 276 277 279 278 286 285 285 285 285 284 284 284 285 284 283 283 282 282 281 281 282 279 279 281 282 284 284 282 281 281 283 285 287 286
273 273 273 273 274 275 275 276 281 285 285 285 284 284 284 284 285 284 283 283 281 281 281 281 280 279 281 282 283 284 284 284 283 282 282 282 283 286
271 271 271 272 272 273 273 273 275 278 285 284 284 284 284 284 284 284 283 282 282 282 280 281 281 280 281 282 282 284 283 284 284 284 282 282 282 282

GFSNE_925_thetae_042.txt.gz
Theta_e
304 302 303 304 302 300 300 299 299 297 297 298 298 297 296 295 295 294 293 292 291 290 289 288 287 286 286 285 285 285 285 285 286 286 286 287 287 288
301 302 303 302 301 301 299 299 298 297 296 297 297 296 295 295 294 293 292 291 291 290 289 288 287 285 284 285 284 284 284 284 285 285 286 286 286 287
302 302 301 301 301 300 299 298 297 297 296 296 296 295 295 294 294 293 292 291 290 289 288 287 286 285 285 284 283 284 284 284 284 284 285 285 286 286
300 300 299 300 300 300 299 298 297 297 297 296 296 295 295 295 293 292 292 291 290 289 288 287 286 285 284 284 284 284 284 284 285 284 285 285 285 285
299 300 299 299 299 299 298 298 298 297 297 296 296 296 295 295 293 292 291 291 289 289 288 287 286 285 285 285 284 284 284 284 284 285 285 285 285 285
299 298 299 298 298 298 298 298 297 297 297 297 296 295 295 294 293 292 291 290 289 289 287 286 286 286 286 285 285 285 285 285 285 285 285 285 284 285
298 297 297 297 298 298 298 297 297 296 296 296 295 295 295 294 293 292 291 290 289 288 287 286 286 286 285 285 285 285 285 285 284 284 285 285 284 284
297 296 296 296 296 297 296 297 297 296 295 295 295 295 294 294 293 292 290 289 287 288 287 286 285 285 284 285 285 285 284 284 284 284 284 284 284 284
296 296 295 295 297 296 295 294 294 295 295 295 294 294 294 294 293 292 290 289 288 287 286 285 285 285 285 285 285 284 284 284 284 284 284 284 285 285
296 295 294 294 294 294 293 293 292 292 293 294 294 294 293 293 292 292 290 289 288 286 285 284 285 285 285 285 284 284 284 284 284 284 284 285 285 285
293 292 292 292 291 290 290 289 290 291 292 292 291 292 293 292 291 291 289 287 285 285 285 285 285 285 285 284 283 283 283 283 284 283 284 284 285 286
290 289 289 288 288 288 286 284 284 286 287 289 290 291 291 291 290 289 288 286 285 284 284 285 285 284 283 283 283 283 283 283 283 283 283 285 286 285
284 285 285 284 284 283 280 280 282 282 284 286 286 288 290 291 289 289 287 286 284 284 285 284 284 284 283 283 283 282 283 283 283 283 284 285 285 286
282 282 282 282 280 280 283 285 285 285 285 285 286 286 289 290 289 288 287 286 285 285 284 285 284 284 283 282 282 282 282 282 283 282 285 285 284 285
280 280 279 278 281 283 283 284 285 286 285 285 286 286 287 289 289 289 287 286 285 284 284 285 284 283 283 282 282 282 282 282 282 283 285 284 284 286
277 277 279 280 282 281 281 281 281 282 284 284 286 287 287 288 289 289 288 286 286 285 285 284 284 283 283 283 283 282 282 282 283 284 283 284 285 284
277 278 279 281 280 279 279 279 279 279 280 281 281 282 288 288 288 288 287 286 286 285 285 284 284 284 283 283 283 283 283 283 284 283 283 284 284 283
278 279 280 279 278 278 277 277 277 277 278 277 279 280 287 288 288 287 287 286 285 285 285 284 284 284 283 283 283 283 284 284 283 282 283 285 284 284
278 278 278 277 277 277 276 275 276 276 276 275 277 278 287 287 288 287 286 286 285 285 285 284 284 284 279 278 283 283 283 283 282 282 283 284 285 284
276 276 276 275 275 275 274 274 274 274 275 274 275 277 280 287 288 287 286 285 285 285 284 284 284 283 283 279 282 282 281 282 282 282 282 283 285 285
275 274 274 274 273 273 273 273 273 273 273 274 274 275 275 286 287 287 286 286 285 285 284 284 284 282 282 281 281 282 284 283 282 282 282 282 284 284
273 272 272 272 272 271 271 271 271 271 271 273 273 273 273 274 286 287 286 286 286 285 284 284 283 282 281 281 282 283 283 283 282 282 282 282 282 280
272 271 271 270 270 270 270 269 270 270 270 271 272 272 272 272 275 285 286 286 285 284 284 283 283 282 282 281 282 283 283 284 283 283 283 282 282 282

GFSNE_925_thetae_045.txt.gz
Theta_e
308 305 304 303 303 301 300 300 299 295 295 298 298 297 297 296 296 296 296 294 293 293 292 290 289 289 288 288 287 286 286 286 286 286 286 287 287 287
304 304 302 302 302 302 302 301 299 298 294 297 297 297 297 296 295 295 294 294 293 292 291 290 289 288 287 286 286 286 285 285 286 286 286 286 286 287
302 301 301 301 301 302 300 301 300 299 297 296 296 296 296 295 295 295 293 292 292 291 291 290 289 288 288 287 285 284 284 285 285 286 286 285 285 286
301 302 301 302 301 299 300 300 299 298 297 295 296 296 296 296 295 295 294 293 292 291 291 290 289 288 287 286 285 285 285 284 284 285 286 286 286 286
301 301 302 301 299 298 298 298 298 298 298 297 296 296 297 296 296 295 295 293 292 291 291 289 288 287 286 286 285 285 285 284 284 285 285 285 285 286
300 300 299 299 298 297 297 297 298 297 297 297 296 296 296 296 296 295 294 294 293 291 290 289 288 287 286 285 286 285 284 285 285 286 285 285 285 285
299 298 299 298 296 296 296 296 296 297 296 295 294 294 294 294 294 294 293 293 293 291 289 288 287 286 286 286 285 285 284 285 284 284 284 284 284 284
299 298 297 296 296 295 295 296 296 295 294 294 293 293 293 294 294 294 293 291 289 290 288 288 287 287 285 285 284 285 285 284 284 284 284 284 284 284
297 297 296 295 294 293 292 292 292 292 291 291 291 291 292 293 293 292 292 291 290 290 289 287 288 286 285 284 285 285 285 284 283 284 284 284 284 284
296 295 293 291 290 290 289 289 289 288 287 287 287 289 290 290 290 291 291 291 290 290 288 287 286 286 286 284 285 285 284 283 283 283 283 283 283 283
292 292 291 289 287 287 286 284 281 280 281 283 284 283 283 282 282 287 290 289 289 287 287 286 286 285 284 285 284 284 283 283 282 282 282 282 283 284
290 288 286 283 283 282 281 281 281 283 284 285 285 285 285 284 285 287 288 290 289 286 286 285 285 284 284 284 284 283 283 282 282 282 282 283 283 285
285 282 281 281 280 280 281 282 283 283 284 284 284 284 284 285 285 286 287 288 288 286 287 285 285 284 284 283 283 283 282 282 282 281 282 282 284 284
279 279 279 278 279 282 282 282 281 280 281 282 284 284 284 285 285 286 287 288 288 288 287 286 285 284 284 283 282 282 282 282 282 282 282 284 284 284
277 277 277 280 281 281 279 279 278 279 278 279 279 280 280 280 283 286 286 287 287 287 286 286 284 284 284 283 282 282 282 282 282 282 283 283 283 284
277 278 279 280 280 278 278 277 277 277 277 277 277 276 277 279 280 286 287 287 285 284 285 285 284 284 284 283 283 283 282 282 282 283 283 282 284 283
277 278 279 278 277 277 277 276 275 275 275 275 275 275 275 277 280 285 287 288 286 285 285 285 285 285 284 283 283 283 283 283 283 283 282 283 284 284
278 278 277 276 275 275 275 274 274 274 274 274 274 274 274 277 276 286 287 286 286 285 285 285 284 284 284 284 283 283 283 283 283 282 282 282 283 284
276 276 275 274 274 274 273 273 272 272 272 272 272 273 273 274 275 278 287 286 285 285 285 285 284 284 281 279 283 283 283 282 282 282 282 282 283 284
275 274 273 273 273 272 272 271 271 271 271 271 271 272 272 273 274 274 285 285 284 284 285 285 284 284 282 279 281 283 282 282 282 282 282 282 284 284
274 273 272 272 271 271 270 270 270 269 270 269 270 271 271 271 272 273 281 285 285 285 284 284 284 283 283 282 280 281 281 283 283 282 282 282 283 283
272 271 271 270 270 269 269 268 268 268 268 268 269 269 270 271 271 272 273 284 285 285 284 284 284 282 281 281 280 281 282 283 283 282 282 281 281 280
270 270 270 269 268 268 268 267 267 267 267 267 268 268 269 269 270 271 272 275 285 285 284 284 283 281 282 282 281 281 282 283 283 282 283 282 282 282

GFSNE_925_thetae_048.txt.gz
Theta_e
311 309 308 306 303 303 300 300 299 299 297 299 298 298 297 297 297 296 296 297 296 296 294 293 292 291 290 290 290 289 288 287 287 287 287 287 287 287
310 308 304 303 303 301 302 302 302 300 297 297 297 298 299 297 296 296 295 295 295 295 294 293 292 291 290 289 289 288 287 287 287 286 286 287 287 287
307 305 304 304 302 302 302 301 301 300 298 299 298 299 296 296 296 296 296 295 295 294 293 293 292 291 290 289 288 286 286 286 286 286 286 286 286 287
305 303 303 301 302 302 300 299 299 298 297 295 296 297 297 297 297 297 296 295 295 294 293 292 292 291 290 289 287 287 286 285 285 285 285 286 286 287
303 303 302 302 301 299 299 298 296 296 297 297 296 296 296 297 296 297 297 297 296 295 294 292 292 291 290 289 288 286 286 285 285 284 284 285 286 286
303 302 301 300 300 300 298 297 295 295 296 296 295 295 295 295 295 295 294 294 294 295 294 294 292 291 290 288 287 286 286 285 285 284 285 285 285 285
301 300 300 298 299 297 296 295 294 294 294 294 293 293 292 293 292 293 293 293 293 293 292 292 291 290 289 287 286 287 285 285 284 285 284 284 284 284
299 298 298 299 297 295 294 293 291 290 290 289 289 290 290 290 291 291 291 291 291 291 291 290 288 288 288 287 288 287 285 284 285 284 283 283 284 284
298 298 297 296 294 293 291 291 290 289 285 283 284 285 286 285 286 287 288 289 290 290 291 289 289 288 288 287 289 285 284 285 285 284 283 283 283 283
296 296 294 291 290 289 288 286 284 281 281 282 284 284 284 285 285 284 285 285 285 286 289 289 289 287 288 288 285 284 285 285 284 283 283 282 282 282
293 291 290 289 286 284 282 280 280 282 282 282 282 283 283 284 284 284 284 284 285 286 288 288 289 287 286 285 285 284 284 283 283 283 282 282 282 283
290 288 286 284 281 280 280 281 282 282 281 279 280 282 283 283 283 284 284 285 285 286 287 287 286 285 284 285 285 284 283 283 283 281 281 281 282 282
287 284 281 279 278 279 282 282 281 280 278 278 278 279 279 280 280 281 282 284 285 286 287 286 285 285 285 283 283 283 283 283 281 281 282 282 283 283
281 279 278 278 280 281 280 279 278 277 276 276 276 277 277 276 277 277 279 280 284 285 285 287 286 285 284 282 283 283 283 283 282 282 282 282 283 283
278 277 278 279 280 279 278 278 276 275 275 275 275 276 275 275 275 276 278 280 285 286 286 285 285 285 284 283 283 283 283 283 282 282 282 282 282 283
277 278 279 279 278 277 276 276 275 274 274 274 274 274 274 274 274 276 277 279 285 286 286 285 285 285 283 283 284 283 283 282 282 282 283 283 282 283
278 278 277 276 276 275 275 274 273 272 272 272 272 272 272 273 273 274 275 277 285 286 284 284 284 285 284 284 284 283 283 283 283 283 283 282 282 283
277 276 275 274 274 274 273 272 272 271 271 271 271 270 271 272 272 273 274 275 284 285 284 284 284 284 284 284 283 283 283 283 283 283 282 282 282 283
276 275 274 273 273 272 272 271 271 270 269 269 269 269 270 271 271 272 273 274 279 285 285 285 285 284 279 277 283 283 283 282 283 282 282 282 282 283
275 274 273 272 272 271 270 270 269 268 268 268 268 268 268 268 270 271 272 273 273 284 285 285 284 284 282 279 282 283 283 282 282 282 282 282 284 283
274 273 272 271 270 269 269 268 268 267 268 267 267 267 268 267 269 269 270 271 273 282 284 284 285 284 284 283 280 281 282 281 283 283 282 282 282 283
272 271 270 270 269 268 268 267 267 267 267 266 267 267 267 267 267 268 270 271 272 274 283 284 284 284 283 282 281 281 281 282 283 283 283 282 281 279
271 270 269 268 268 267 267 266 266 266 266 266 266 267 267 266 267 268 269 270 272 273 279 284 284 282 282 282 281 281 281 281 283 282 283 282 282 282

GFSNE_925_thetae_051.txt.gz
Theta_e
314 313 312 311 310 306 303 303 300 299 300 302 301 302 299 297 298 298 297 296 296 296 297 297 296 295 295 294 294 293 292 292 290 289 289 289 288 288
314 311 310 309 306 304 303 303 301 301 301 301 300 300 300 300 299 297 296 296 295 295 295 295 295 295 294 293 292 292 292 291 290 289 289 288 288 288
311 310 309 307 304 303 303 302 302 301 298 299 299 298 298 298 298 298 297 297 296 296 294 294 294 295 294 293 292 291 289 290 290 289 288 288 287 287
310 309 306 303 304 303 302 301 299 298 296 295 296 296 297 297 297 296 296 296 296 296 296 296 296 296 294 293 292 291 290 289 287 287 287 287 287 287
309 307 304 304 303 301 300 299 298 297 296 294 294 295 295 295 294 294 293 293 293 293 293 294 294 294 293 294 293 292 290 289 287 286 285 285 285 286
307 305 304 303 301 300 300 298 296 295 293 293 293 292 292 292 292 292 291 291 291 292 292 292 293 293 293 292 292 292 291 289 287 286 285 285 284 285
303 303 302 301 300 299 297 297 295 293 291 290 290 289 289 289 289 289 288 287 288 288 289 290 291 291 291 292 291 291 291 289 286 287 285 284 285 284
303 301 300 299 298 297 297 295 293 290 289 287 286 284 284 283 283 283 284 285 285 285 287 287 287 289 290 290 290 290 290 287 288 287 284 284 284 283
301 299 298 297 296 295 293 291 290 288 285 281 281 282 282 283 283 283 283 283 283 284 284 284 284 285 287 289 289 287 288 287 288 285 284 284 284 283
298 297 296 294 291 290 290 288 286 282 281 282 282 282 281 282 282 283 283 283 283 284 284 284 284 285 286 288 288 287 287 287 285 284 285 283 283 282
295 294 292 290 287 288 286 282 280 281 282 281 280 279 279 279 281 282 283 283 283 283 284 284 284 285 287 287 288 286 286 286 285 284 283 282 282 282
290 288 291 288 285 281 280 280 282 281 280 278 277 277 277 278 278 279 280 281 282 282 283 284 285 286 286 285 285 285 284 284 284 283 282 281 281 281
289 286 284 281 279 279 281 281 280 279 277 276 276 276 276 276 276 276 276 277 278 279 280 283 285 285 284 284 283 285 284 283 283 282 281 281 282 282
285 282 279 278 280 281 280 279 278 276 275 275 274 275 275 275 274 275 275 276 276 277 278 281 284 285 284 282 283 283 282 283 282 282 282 282 282 282
280 278 278 279 280 279 278 277 276 275 274 273 273 273 273 273 273 274 274 275 276 278 281 284 285 285 284 283 282 282 282 283 282 282 282 282 283 282
277 278 278 279 278 277 276 275 274 273 272 272 272 272 271 272 272 273 273 273 274 278 282 284 285 285 284 284 283 283 283 282 282 282 282 283 283 282
278 278 277 277 276 275 274 274 272 272 271 271 271 270 270 270 271 271 272 272 274 275 276 284 285 285 284 284 282 283 284 283 283 282 282 283 282 282
278 276 275 274 274 274 273 272 271 271 270 270 269 269 268 269 269 270 271 271 273 274 275 283 284 283 283 283 283 284 283 283 283 282 282 282 281 282
276 275 274 273 273 273 272 271 271 270 268 268 268 268 268 268 267 268 270 270 271 272 274 278 284 283 282 280 283 283 283 283 282 282 281 281 282 283
275 274 273 272 272 271 270 270 269 268 268 267 267 267 267 266 266 267 268 269 270 271 273 279 283 284 282 280 282 283 283 282 282 282 282 282 283 282
274 273 272 271 270 269 269 268 267 267 267 266 266 266 267 266 266 266 267 267 269 271 273 274 282 284 284 283 280 283 283 282 282 281 282 282 282 283
273 272 271 270 269 268 267 267 266 266 266 266 266 266 266 266 266 266 266 267 269 270 272 273 278 284 283 283 282 282 281 281 282 282 282 282 282 279
271 270 269 268 268 267 266 266 266 265 265 265 266 266 266 265 266 266 266 266 268 270 272 274 276 283 283 283 282 281 280 281 282 282 282 282 282 282

GFSNE_925_thetae_054.txt.gz
Theta_e
321 321 316 313 310 311 312 309 305 302 300 300 301 302 303 302 300 299 299 299 296 296 296 295 295 295 296 297 297 297 297 297 297 295 294 293 292 291
322 319 316 313 311 311 309 307 304 303 302 302 302 302 302 301 299 298 298 297 297 297 297 296 296 295 295 295 296 296 296 296 296 295 294 292 291 291
319 316 315 312 311 308 305 303 303 302 300 300 300 299 298 298 297 297 297 296 296 295 295 295 296 296 296 296 295 295 295 295 295 294 293 292 291 291
316 313 313 310 308 305 303 303 302 301 299 297 295 296 296 296 296 295 295 294 293 293 293 293 292 292 293 293 293 294 294 295 294 293 292 291 291 290
315 314 312 308 305 303 303 302 300 298 296 295 294 294 293 294 293 292 291 291 290 290 289 288 289 289 290 291 291 292 292 292 293 293 292 291 290 288
314 312 309 307 305 304 302 300 298 297 295 293 292 291 291 290 289 288 286 284 283 283 283 283 284 284 286 287 288 290 290 291 292 292 292 291 289 287
312 308 307 305 304 303 300 299 297 295 293 291 289 289 288 286 284 283 283 283 283 283 284 284 284 285 284 285 286 285 288 290 290 291 291 290 288 287
306 304 303 303 301 299 298 297 296 294 291 289 288 285 283 282 282 282 282 282 283 283 284 283 283 284 284 284 284 285 285 287 289 289 291 288 287 286
304 302 300 299 299 297 296 294 292 291 289 287 283 281 282 282 281 281 281 281 282 282 282 283 283 283 284 284 284 285 286 287 288 290 289 287 287 287
302 301 299 296 295 294 292 291 288 285 283 282 282 282 281 280 281 282 282 282 282 282 282 283 283 283 283 284 284 285 286 287 287 287 288 287 285 285
299 298 297 294 291 291 290 286 282 281 281 281 280 279 278 278 278 280 279 280 280 280 280 281 282 283 283 284 285 286 286 286 287 287 287 285 285 283
293 291 290 289 288 288 285 281 281 281 280 279 278 277 277 277 277 277 277 277 277 278 281 280 280 281 284 284 285 285 286 285 284 285 285 284 283 282
289 286 285 284 282 281 280 281 280 279 278 277 276 276 276 276 275 275 275 275 276 276 278 278 279 279 281 284 284 284 285 284 285 284 283 282 281 281
287 284 282 279 279 281 280 279 279 277 276 275 275 275 275 274 274 274 274 274 275 275 277 276 277 278 281 284 284 283 284 284 283 282 282 281 281 282
284 281 279 279 280 279 278 278 277 275 274 273 273 273 273 272 272 273 273 273 274 275 277 277 277 278 279 283 284 283 283 283 282 283 282 282 282 282
278 278 279 279 279 278 277 276 275 274 273 272 272 271 271 271 271 272 272 272 272 274 275 276 278 280 283 285 283 283 283 283 283 282 282 282 282 283
278 278 278 277 276 276 275 274 273 272 272 271 270 270 270 269 270 270 270 271 271 272 273 276 278 282 284 284 283 283 283 283 283 282 282 282 282 282
278 277 276 275 275 275 274 273 272 271 271 270 269 269 268 268 269 268 269 270 270 271 272 273 274 279 283 283 283 283 283 283 283 283 282 282 281 282
277 276 275 274 273 273 273 272 271 270 269 268 268 268 267 267 267 267 268 269 269 270 271 271 274 276 284 284 283 283 283 284 283 282 282 282 281 282
275 275 274 273 273 272 271 270 269 269 268 267 267 267 266 266 266 266 267 267 267 268 270 272 274 277 282 283 283 283 283 283 282 282 282 282 282 283
275 274 273 272 271 270 269 269 268 267 267 266 266 266 266 266 265 265 265 266 266 268 270 271 272 273 276 279 282 282 283 283 282 282 281 282 282 283
273 272 271 270 270 269 268 267 266 266 266 266 265 265 266 265 265 265 265 265 266 267 268 270 272 274 276 281 282 282 283 282 281 281 281 282 282 282
271 270 270 269 268 267 266 266 265 265 265 264 264 265 265 265 265 264 265 265 266 266 268 270 272 274 276 281 282 282 281 280 281 281 281 281 282 282

GFSNE_925_thetae_057.txt.gz
Theta_e
321 322 319 319 316 313 311 311 312 311 303 302 303 301 301 302 302 300 298 300 299 298 296 296 296 297 296 296 295 295 296 297 297 298 298 298 298 297
319 320 320 318 316 315 310 310 310 311 311 305 301 301 301 302 301 300 298 298 298 298 297 297 297 296 296 296 296 296 296 295 295 295 297 297 297 297
319 317 317 316 316 314 311 309 308 307 307 302 303 301 302 301 299 298 297 297 296 296 295 294 294 294 293 293 293 293 293 293 294 294 295 297 297 297
318 316 315 313 314 313 310 308 305 304 303 302 300 299 298 298 297 296 295 293 294 292 291 290 289 288 287 286 286 286 287 289 290 290 292 293 295 296
318 315 314 313 311 309 307 304 302 302 302 300 297 297 297 296 294 293 292 291 289 287 285 285 285 284 284 284 284 284 284 284 285 288 290 291 292 293
317 317 317 313 311 309 305 303 302 299 298 297 295 295 294 294 291 291 289 287 286 285 285 285 284 284 285 284 284 284 284 284 284 287 288 289 291 292
316 317 312 312 311 308 305 303 301 298 296 294 292 291 292 291 290 287 285 285 285 285 286 286 285 285 285 285 285 285 284 284 284 286 285 288 289 289
312 310 309 307 305 305 304 303 301 298 295 292 291 292 291 287 285 285 284 284 285 285 285 284 284 284 285 285 284 283 284 284 285 286 287 288 288 290
310 307 304 303 302 301 300 298 296 294 292 292 289 287 286 284 284 284 284 284 284 284 283 283 284 284 284 284 284 283 284 285 286 286 287 288 289 289
306 304 303 300 300 299 296 293 291 290 290 286 284 284 283 283 282 282 283 283 282 282 282 283 283 283 284 284 284 283 285 285 286 287 287 287 288 288
300 300 301 298 295 296 293 290 287 284 282 282 281 281 279 278 278 280 281 281 282 281 281 281 282 282 282 283 285 285 285 285 286 286 286 286 287 286
293 292 295 294 291 291 291 289 283 283 281 280 279 278 278 277 277 278 278 279 280 281 282 281 281 281 283 283 285 285 285 286 285 285 285 286 286 285
289 288 287 290 290 288 285 282 282 280 279 278 278 278 277 277 277 277 277 277 278 279 279 278 279 280 281 281 283 285 285 286 286 286 285 284 283 283
287 286 285 284 283 281 280 280 280 279 277 277 277 277 276 276 276 275 275 275 276 276 276 277 277 278 279 280 282 284 285 286 285 286 284 283 282 281
286 283 282 282 280 280 279 279 278 277 276 276 276 276 275 274 273 274 274 274 275 275 275 276 277 278 279 280 281 283 285 286 286 284 284 284 283 284
281 281 281 280 279 279 277 277 276 275 275 275 274 273 273 273 272 273 273 273 274 275 276 276 276 277 278 279 282 283 286 286 285 284 284 284 283 282
279 279 279 279 279 278 277 276 275 274 274 273 272 272 272 272 271 272 272 272 273 274 275 275 276 276 277 278 282 286 286 285 285 284 283 283 284 284
279 279 278 278 278 277 276 275 274 273 272 271 271 271 271 270 270 271 271 271 272 273 273 274 275 277 280 283 284 286 285 285 285 284 283 284 284 284
278 277 277 276 276 276 275 274 273 272 270 270 270 270 270 269 269 270 270 271 271 272 272 273 275 277 280 283 285 284 285 285 285 284 284 284 284 284
277 276 275 275 274 274 273 272 271 270 269 269 269 269 268 268 268 269 269 270 270 271 271 273 275 276 277 278 278 282 284 285 285 284 284 283 283 283
276 275 274 274 273 272 271 270 269 269 268 267 267 267 267 267 268 268 268 268 268 270 271 272 273 273 274 276 278 280 283 283 284 284 284 283 284 284
274 274 272 271 270 270 269 268 268 268 268 268 267 267 267 267 267 267 268 268 269 269 270 271 272 274 275 276 279 283 284 283 282 282 282 282 284 285
271 270 270 269 268 268 268 267 267 266 266 266 265 265 265 265 266 266 267 267 268 269 269 270 272 273 275 276 277 282 284 282 283 283 282 282 282 282

GFSNE_925_thetae_060.txt.gz
Theta_e
322 322 322 322 321 318 318 316 313 316 317 314 310 307 306 306 305 302 303 302 302 301 301 300 299 297 296 297 297 297 297 297 297 298 299 300 300 300
322 322 322 321 321 318 317 318 314 314 316 316 309 307 306 302 302 302 303 302 301 300 299 298 298 298 297 297 296 295 295 295 295 295 297 298 298 299
322 322 321 320 319 318 316 315 313 312 313 314 307 305 302 301 301 302 302 301 301 299 297 297 296 295 295 293 292 292 291 291 291 290 291 293 294 295
322 322 321 320 319 318 315 313 311 311 311 311 305 304 302 302 301 300 300 299 299 298 296 294 291 290 287 286 285 285 285 284 284 284 284 285 288 290
321 320 319 319 318 317 314 311 309 308 307 306 305 301 300 299 298 298 298 299 297 294 291 287 286 286 286 285 285 284 284 284 284 284 284 284 285 288
319 317 317 318 317 315 313 311 307 305 304 301 300 299 297 297 297 297 298 296 293 290 288 288 287 287 286 286 286 285 285 285 285 284 285 285 286 286
318 317 318 318 317 316 312 310 305 303 300 300 297 296 295 295 294 295 294 293 290 289 289 289 289 288 288 288 287 287 286 285 283 284 285 285 286 287
318 317 316 318 316 312 311 310 306 300 298 297 294 294 294 293 294 292 291 289 290 289 289 288 288 287 288 288 287 285 284 284 283 285 286 286 286 287
318 316 313 312 311 308 304 302 299 299 301 298 294 293 293 291 290 289 288 288 288 288 287 287 287 287 288 287 286 285 285 284 284 285 285 286 287 288
315 313 311 306 305 305 299 297 296 296 295 294 292 289 288 287 287 286 286 286 286 286 285 285 286 286 286 286 285 285 285 284 285 285 285 286 287 287
308 306 304 301 297 297 294 292 288 287 289 289 287 286 285 283 282 283 284 284 285 285 285 284 285 285 284 284 286 286 286 286 286 286 285 285 287 287
298 296 297 296 293 295 295 292 286 284 283 282 281 280 280 280 278 280 282 282 283 284 285 284 284 283 285 284 285 284 286 287 287 287 285 285 286 287
289 288 289 290 290 291 290 288 286 283 282 282 282 281 281 281 280 280 280 280 281 282 282 281 282 281 281 283 283 284 284 286 287 287 286 285 285 285
287 287 287 289 287 285 285 283 282 281 281 281 280 280 280 280 279 278 278 278 278 278 279 278 279 280 280 281 282 283 284 286 286 287 287 286 284 283
286 285 283 282 281 280 280 280 279 280 280 280 280 279 279 278 277 276 277 277 277 277 277 277 277 278 279 280 281 282 283 285 286 287 287 286 286 286
283 282 281 281 280 279 279 279 279 278 278 278 278 277 276 276 276 276 276 277 276 277 277 277 277 277 278 279 280 281 283 285 287 287 287 287 286 285
282 281 281 281 280 280 280 278 278 277 277 277 276 276 276 276 276 275 275 275 275 276 276 277 277 277 278 279 280 281 282 284 287 287 287 286 285 285
282 282 282 281 281 280 279 278 277 276 276 275 275 275 275 275 274 274 273 274 275 275 276 276 276 277 278 280 281 282 284 285 287 287 287 286 286 286
281 281 281 280 280 279 278 277 276 275 273 273 273 273 273 273 273 273 274 274 274 275 275 276 276 277 280 281 281 282 284 286 287 287 287 286 286 285
280 280 279 278 277 277 276 275 274 274 273 273 272 272 272 272 272 272 273 273 274 274 274 274 275 277 278 279 278 277 278 279 283 286 286 285 285 284
278 277 277 276 275 275 274 273 272 272 271 271 271 271 271 271 271 271 271 271 271 272 273 274 275 274 274 275 277 279 280 281 282 285 286 285 285 285
276 275 274 273 273 272 272 271 271 271 271 270 270 270 269 269 269 270 270 271 271 272 272 272 273 274 275 276 277 278 279 281 283 284 284 285 285 285
272 272 272 271 270 270 270 270 269 269 268 268 268 268 268 268 268 269 269 269 270 270 271 271 272 273 274 275 276 278 279 279 284 284 283 283 283 283

GFSNE_925_thetae_063.txt.gz
Theta_e
319 321 322 322 321 322 322 321 322 323 321 317 316 316 313 313 312 310 307 306 305 304 302 302 301 302 301 299 298 298 297 297 297 297 298 299 300 300
321 321 322 322 322 322 322 321 320 320 320 317 317 316 313 310 309 308 306 306 304 302 302 302 302 300 299 298 298 297 297 296 295 294 293 294 295 295
322 322 322 322 323 323 323 322 320 317 317 317 317 316 310 308 307 306 304 304 304 303 303 302 301 299 297 297 296 295 293 291 289 286 285 287 290 290
322 322 322 322 322 323 323 321 319 317 316 315 313 313 309 307 305 303 303 303 304 304 302 301 299 297 296 293 291 288 286 286 285 285 285 284 285 288
322 322 322 322 323 322 320 319 317 315 314 313 312 308 304 303 303 302 302 301 301 301 300 297 296 293 289 287 286 286 286 286 285 285 284 284 283 284
322 322 322 323 322 321 319 316 315 314 312 310 310 303 302 300 299 299 299 300 300 300 297 293 290 289 288 287 288 287 287 287 287 286 285 283 283 285
322 322 322 322 321 320 318 316 315 312 311 308 307 301 299 298 298 298 299 299 298 297 294 292 291 291 291 290 289 289 289 288 287 285 284 283 285 286
322 322 321 320 319 319 318 317 316 312 308 305 303 301 299 297 296 297 296 294 293 293 291 291 291 290 289 289 289 289 288 286 285 285 284 284 285 285
323 322 320 319 318 317 316 316 314 309 306 303 301 298 294 296 296 293 291 291 291 290 290 290 290 289 289 289 289 287 287 286 285 284 284 285 285 286
321 321 321 319 317 314 311 305 302 300 300 298 296 294 294 292 291 290 289 289 289 289 288 288 288 288 288 288 288 287 286 286 286 286 286 286 286 286
318 318 317 314 308 306 303 295 292 290 291 292 292 292 291 290 288 286 286 287 287 287 287 287 287 286 288 286 285 286 286 286 286 287 287 286 286 285
302 300 300 301 295 293 296 292 288 286 287 287 287 285 283 283 283 282 285 285 285 286 286 286 286 286 286 286 285 285 284 285 285 285 286 286 286 285
291 289 289 289 289 291 292 290 287 285 284 283 282 282 282 282 282 281 282 282 283 284 284 282 283 284 283 284 283 284 283 283 286 287 288 287 287 286
286 286 285 288 289 289 287 285 284 283 282 282 282 282 282 282 282 281 281 280 280 280 280 280 280 281 281 282 282 282 283 283 283 285 287 287 287 285
284 283 283 284 284 282 281 281 282 283 283 283 282 282 281 280 279 279 279 279 279 279 279 279 279 279 279 280 281 281 282 282 283 284 286 288 287 286
282 282 282 282 282 281 280 280 280 281 282 281 281 280 279 279 279 279 279 279 279 279 279 279 278 278 279 279 279 280 281 282 283 284 285 287 288 287
282 282 282 282 282 281 280 280 279 279 280 279 279 279 279 278 278 278 278 277 278 278 278 278 278 278 278 278 279 280 280 281 282 283 285 287 288 287
284 284 283 283 283 282 281 280 279 278 277 277 277 277 277 277 277 276 276 276 276 277 278 278 278 278 278 279 279 280 281 283 284 285 286 287 288 287
283 283 282 282 281 280 279 279 278 276 275 275 275 275 275 275 275 275 275 275 276 276 277 277 277 277 279 280 279 280 281 280 279 280 282 288 288 287
280 280 279 279 278 278 277 276 276 276 275 274 274 274 273 273 273 274 274 274 275 275 275 275 275 276 278 278 277 276 276 277 278 280 282 286 287 286
278 278 277 277 276 276 275 275 274 274 273 273 273 273 273 272 272 272 272 272 272 272 273 274 275 274 274 275 276 277 278 279 279 280 281 282 287 286
276 275 275 274 274 273 273 273 273 272 272 271 271 271 270 270 270 270 271 271 271 271 272 272 273 273 274 275 276 277 278 278 279 279 280 282 285 287
273 273 273 272 271 271 271 270 270 270 269 269 269 269 269 268 269 269 270 270 270 270 270 271 272 272 273 274 274 276 276 278 278 280 281 284 282 283

GFSNE_925_thetae_066.txt.gz
Theta_e
320 319 319 319 320 319 320 321 320 319 319 319 318 318 317 316 315 316 316 314 313 312 311 310 307 305 303 302 301 301 300 299 298 298 298 298 299 299
320 319 320 320 321 320 320 321 321 321 321 320 320 318 318 317 316 316 315 314 312 311 311 307 304 303 302 301 301 300 299 298 298 297 295 294 294 293
319 320 321 321 321 321 322 321 321 321 321 320 319 319 318 317 316 314 314 312 311 310 307 304 302 301 302 301 300 299 298 297 295 293 290 287 286 288
320 320 320 321 321 321 322 322 322 322 321 320 319 317 317 316 317 314 311 308 307 307 304 303 302 302 301 300 298 297 296 293 290 286 286 285 285 285
320 321 321 321 322 322 322 322 322 322 320 319 318 316 314 315 314 310 309 306 305 305 304 304 302 301 299 297 295 293 290 287 286 286 286 286 285 284
320 320 321 321 321 322 322 322 323 321 319 317 316 314 311 310 309 305 303 304 304 303 303 302 300 298 293 290 289 288 287 287 288 288 287 286 285 284
321 321 321 322 322 322 322 322 322 319 318 315 314 312 305 302 303 303 303 301 300 301 301 298 293 292 291 291 291 290 289 289 289 288 286 285 285 284
323 323 323 323 322 322 322 323 321 319 317 316 315 312 306 304 302 301 299 298 295 297 297 295 292 292 291 290 290 289 289 289 288 286 286 285 284 284
324 323 323 323 322 322 322 321 321 319 317 315 314 310 304 300 299 296 296 294 292 292 291 291 291 291 290 289 289 289 288 287 287 286 286 285 286 286
321 321 322 322 322 321 320 315 307 303 302 303 305 298 299 297 297 296 295 292 291 290 288 288 289 289 288 288 288 287 288 287 286 286 286 286 286 286
319 319 318 318 318 317 313 299 294 291 292 295 294 294 294 293 292 292 289 289 288 288 288 287 287 287 287 286 287 287 287 287 286 285 286 286 286 286
306 303 301 304 301 301 301 295 288 286 287 288 287 288 287 286 286 285 286 286 286 286 285 286 286 286 285 286 286 285 285 284 284 284 284 285 287 287
293 291 290 292 292 293 293 289 286 285 284 284 283 283 283 282 281 281 282 283 283 284 283 283 283 283 283 283 283 283 283 283 283 284 284 284 287 287
286 286 285 287 288 287 285 284 284 285 284 283 283 283 282 282 282 281 281 281 281 281 281 281 280 281 281 280 281 281 281 281 282 282 282 282 283 286
286 283 283 283 283 282 283 283 283 283 283 283 283 281 281 280 280 280 280 279 279 279 279 280 280 279 279 279 279 279 280 280 281 281 281 283 284 286
283 283 283 282 282 281 281 282 282 282 281 281 280 280 279 279 280 279 279 279 279 278 279 279 279 279 278 278 279 279 279 280 280 280 281 281 282 284
283 283 282 282 281 280 280 279 279 279 278 278 278 278 278 278 278 278 278 277 277 277 277 277 278 278 278 278 278 278 278 279 279 280 281 283 284 285
284 284 283 282 282 281 280 279 278 276 276 276 276 276 276 276 276 276 276 276 276 277 277 277 277 278 278 278 278 279 279 280 280 279 279 280 281 281
282 281 280 280 279 278 277 277 276 275 276 275 275 274 274 274 274 274 274 275 275 275 276 275 275 276 276 275 276 278 276 276 276 276 277 279 280 281
279 279 278 278 277 276 276 275 274 274 273 273 273 273 273 273 272 273 272 272 272 273 273 273 273 274 276 275 274 274 275 276 276 277 277 279 280 281
276 276 275 275 274 274 274 274 273 273 272 272 271 271 271 271 271 270 270 270 271 271 272 272 272 272 272 273 273 274 275 275 276 278 278 279 279 280
274 274 273 272 272 271 271 271 270 270 270 270 269 269 269 269 269 269 269 269 270 270 271 271 271 271 272 273 273 273 273 274 274 275 277 278 279 280
271 271 271 270 270 269 269 268 268 268 268 268 268 267 267 267 267 268 268 269 269 269 269 269 270 270 271 271 271 272 272 273 274 275 276 277 279 282

GFSNE_925_thetae_069.txt.gz
Theta_e
318 317 319 320 319 320 319 319 319 318 318 319 320 320 320 320 319 318 318 318 317 315 314 314 314 313 313 312 312 311 308 304 302 301 301 302 302 302
319 319 318 317 318 319 319 319 320 319 318 318 318 318 318 319 319 319 318 317 316 316 316 315 313 313 312 310 310 307 304 301 301 300 299 299 299 298
319 318 318 318 319 320 319 320 320 319 318 318 318 318 318 319 319 319 318 317 317 316 316 314 314 311 310 307 303 301 300 300 299 298 297 296 295 292
318 317 318 318 319 319 319 320 320 319 319 318 318 318 319 319 320 319 318 317 316 316 315 315 312 308 307 306 300 300 299 298 297 296 295 293 287 286
319 318 318 318 318 319 320 320 320 320 320 320 320 319 319 318 318 318 317 317 314 314 313 311 309 307 307 301 301 299 297 296 294 292 288 286 286 286
320 319 319 318 318 318 319 320 320 320 320 320 321 320 319 317 316 313 310 311 311 308 306 307 306 304 302 300 299 298 297 292 288 286 287 287 287 287
320 320 319 319 319 320 320 320 320 320 320 321 321 320 318 308 311 313 309 310 305 304 303 303 302 301 299 294 292 294 292 289 288 288 288 288 287 286
319 319 318 318 319 319 320 320 320 320 320 321 320 319 318 313 312 310 306 301 297 300 300 298 299 294 292 293 292 291 290 289 289 289 288 287 286 286
319 319 319 319 320 320 320 321 320 319 318 319 319 318 316 314 309 302 301 298 294 294 297 293 293 293 292 290 290 290 289 289 288 287 287 286 286 285
321 321 322 322 322 322 322 319 314 311 308 307 307 304 303 302 302 301 298 295 291 290 292 289 290 289 289 290 289 289 288 287 287 287 287 286 286 286
320 319 319 320 321 320 320 311 299 293 291 294 294 293 294 295 296 296 291 290 288 288 288 288 287 287 287 288 287 287 287 287 286 286 285 285 285 284
308 305 305 307 307 311 314 301 289 286 287 289 289 289 290 290 289 290 289 287 287 286 283 286 285 286 286 285 286 286 285 285 284 284 284 284 283 284
295 292 292 294 294 294 292 288 286 286 286 286 285 285 284 284 283 284 284 285 285 284 282 284 283 283 283 283 284 284 284 284 283 282 282 282 283 282
287 287 287 288 289 289 287 285 286 285 284 283 283 282 282 282 282 283 283 283 283 282 281 281 281 281 280 280 280 280 280 280 279 280 280 280 281 281
284 284 283 283 284 284 284 284 284 283 283 282 281 280 280 281 281 281 280 280 280 280 280 280 280 280 280 279 279 279 278 279 278 279 280 280 279 279
282 282 282 282 282 282 282 282 282 281 280 280 279 279 279 279 279 279 279 278 278 278 277 277 278 278 278 279 278 278 278 278 278 278 278 279 279 281
282 282 281 280 280 279 279 278 278 278 278 278 277 277 277 277 276 276 276 276 276 276 276 276 276 277 277 278 278 278 278 278 278 278 279 279 279 279
281 281 280 280 279 278 276 276 276 276 276 276 275 275 274 274 274 274 274 274 275 275 275 275 274 274 275 275 276 277 277 276 276 276 276 276 277 277
279 278 278 278 277 277 276 276 274 274 273 273 273 273 273 272 272 272 272 272 272 272 272 272 272 273 273 273 274 274 274 274 275 275 275 276 277 277
276 276 275 275 275 274 274 274 273 272 272 271 271 270 270 270 270 270 270 270 270 270 271 271 272 272 272 272 272 272 273 274 274 275 275 276 277 277
274 273 273 272 272 271 271 271 270 270 270 269 269 269 269 268 268 268 268 269 269 270 270 270 270 270 270 271 271 271 272 272 272 273 273 274 275 276
271 270 270 270 269 269 269 269 268 268 268 268 267 267 267 267 267 267 267 268 268 268 268 268 269 269 269 270 270 270 270 271 271 272 273 274 275 277
269 268 268 268 267 267 267 267 267 267 266 266 266 266 265 265 266 266 266 266 267 267 267 268 267 267 268 269 269 269 269 270 271 271 273 274 276 277

GFSNE_925_thetae_072.txt.gz
Theta_e
319 320 320 319 318 320 320 320 319 319 316 319 319 320 320 319 318 317 318 318 318 318 317 317 316 316 315 313 313 316 316 315 315 313 312 310 308 306
321 320 319 318 317 317 318 319 318 319 319 317 317 317 318 319 318 318 319 319 317 318 318 317 316 316 316 314 314 314 314 315 315 313 310 306 304 303
321 320 319 318 317 317 317 318 318 318 318 318 318 317 317 317 318 317 318 318 318 319 319 318 317 317 316 314 315 313 314 314 311 305 301 301 301 300
319 319 319 318 318 317 317 317 318 318 318 318 317 317 317 317 317 317 318 318 318 319 319 319 318 317 316 315 314 312 312 310 306 301 299 299 298 296
319 319 318 318 318 318 318 317 318 318 318 317 317 317 318 317 317 318 318 317 318 318 318 318 318 317 315 313 311 308 305 303 300 299 297 296 297 293
319 319 318 317 317 317 317 317 317 317 318 318 318 318 318 318 319 318 317 316 317 317 316 317 315 313 310 306 304 303 300 298 298 297 296 295 294 290
318 318 318 318 318 317 317 317 317 317 317 318 318 318 319 317 316 318 315 317 316 313 311 310 309 306 303 302 300 298 297 296 295 295 293 292 288 287
319 319 319 319 319 319 319 318 318 318 318 318 319 319 319 319 319 316 317 310 304 304 305 301 300 300 298 298 297 294 294 293 292 290 289 289 288 288
320 320 320 319 319 319 319 319 318 318 319 319 319 319 319 319 319 314 312 308 304 301 300 294 295 294 293 293 292 292 292 290 290 290 289 289 287 286
321 320 319 319 319 318 317 316 316 315 314 313 312 311 311 310 311 310 305 297 294 293 294 290 291 291 291 291 291 291 289 288 288 287 287 286 286 286
319 320 320 319 319 319 318 316 308 298 293 293 292 292 295 297 298 299 295 293 289 288 289 289 289 289 289 289 289 288 288 288 286 286 285 286 286 285
313 307 307 308 311 314 315 307 290 286 286 288 289 291 290 290 292 292 291 289 287 285 284 286 285 286 286 285 287 287 286 284 284 285 284 283 283 284
290 290 290 293 295 296 294 290 287 286 285 285 285 284 285 286 286 287 287 287 285 281 282 285 284 284 284 283 283 282 283 283 282 282 282 282 282 281
286 285 285 285 285 284 285 285 284 285 284 283 282 281 281 281 281 282 282 282 282 281 281 282 281 281 280 280 280 281 281 280 280 279 279 279 280 280
282 282 283 283 282 282 283 283 283 282 281 280 280 280 280 280 280 280 279 279 279 279 279 279 279 279 279 280 279 279 279 278 278 278 278 278 278 279
283 283 283 283 283 283 282 281 281 280 279 279 278 279 278 278 277 277 276 276 276 276 276 276 276 277 277 278 278 278 278 278 278 278 278 278 278 279
281 281 280 279 278 277 277 278 278 278 277 277 276 276 275 275 275 275 275 275 275 275 275 275 274 274 275 275 276 277 277 277 276 275 275 275 275 276
279 278 278 277 276 276 276 275 275 275 274 274 274 274 273 273 273 272 272 272 272 272 272 272 272 273 273 273 274 274 273 273 273 274 275 275 275 275
277 276 276 275 275 275 274 273 273 273 273 272 272 271 271 271 270 270 269 270 270 270 271 271 271 272 271 269 271 271 271 272 272 273 273 274 275 275
274 273 273 273 272 272 272 271 271 271 270 270 269 269 269 269 268 268 268 268 269 270 270 270 270 269 270 267 270 270 271 271 271 271 272 272 272 273
271 271 271 270 270 270 270 269 269 268 268 268 267 267 267 267 267 267 267 268 268 268 268 268 268 269 268 268 269 269 269 269 270 271 271 271 272 273
269 268 268 268 268 268 268 268 268 267 267 266 266 266 266 266 266 266 266 266 266 266 267 267 267 267 268 268 268 268 268 269 269 270 271 272 272 273
267 267 267 266 266 266 266 266 266 265 265 264 264 264 264 264 264 265 265 265 265 265 265 265 266 266 267 267 267 268 268 268 269 269 270 271 272 273

GFSNE_925_thetae_075.txt.gz
Theta_e
319 318 317 316 316 316 316 317 318 317 317 318 318 318 318 318 318 317 317 317 317 317 316 315 314 315 315 315 315 314 313 313 313 314 316 317 316 315
319 318 318 317 317 318 319 319 320 319 319 318 317 317 317 318 317 318 318 317 317 317 317 318 318 318 318 318 317 316 316 315 314 313 314 316 316 316
319 319 318 318 319 319 320 319 317 317 318 317 317 317 317 317 317 317 317 317 317 317 317 317 317 318 317 318 318 318 317 317 316 313 313 316 316 313
319 319 319 319 320 320 318 318 317 317 317 317 317 317 317 317 318 318 317 317 317 317 317 317 317 317 318 318 318 318 317 316 315 313 313 314 314 308
319 319 319 319 319 318 317 317 317 317 317 317 317 317 317 317 316 316 316 316 316 317 317 318 318 318 319 318 318 317 317 315 312 310 311 310 304 301
319 319 319 319 318 318 318 317 317 317 316 316 317 317 317 317 317 316 316 316 316 316 317 317 317 317 316 316 315 314 312 310 307 306 303 300 300 299
318 318 319 319 319 318 317 317 317 316 316 316 316 317 317 317 316 316 317 316 316 316 315 314 315 314 314 313 311 308 306 304 302 301 299 298 297 297
318 317 317 317 317 318 318 318 317 316 315 316 316 316 316 317 317 317 316 316 316 316 315 312 309 308 307 306 305 302 300 298 297 296 295 295 294 293
318 318 318 318 318 317 317 318 318 317 317 317 317 317 317 318 318 318 317 316 316 312 308 299 297 298 298 297 297 296 295 293 293 292 291 291 290 290
318 318 319 319 319 319 318 318 317 317 315 316 311 311 311 309 310 311 312 310 300 296 295 292 291 291 292 292 292 291 291 290 290 289 289 289 289 288
318 318 315 316 318 319 319 317 316 307 295 298 298 293 290 291 295 297 298 296 291 287 290 290 289 289 289 289 289 289 289 288 287 287 287 287 287 287
305 299 295 295 302 307 310 310 296 287 287 287 289 290 289 289 290 291 291 288 287 286 284 286 285 286 286 285 286 287 286 285 284 285 285 285 284 283
287 286 286 286 288 290 294 291 288 285 285 283 282 282 283 284 284 284 285 285 282 281 282 284 283 284 283 283 282 282 283 283 283 283 282 282 281 281
284 284 283 283 283 284 284 284 285 285 283 281 281 280 280 280 280 280 281 281 280 280 280 282 281 281 281 281 281 281 280 280 279 279 278 278 278 278
281 281 281 281 281 281 282 283 283 281 280 280 279 278 278 279 279 279 279 278 278 277 277 277 278 278 279 279 279 279 279 278 278 278 278 278 278 278
282 281 280 280 279 279 280 279 278 278 277 277 276 276 276 276 275 275 275 276 276 275 275 275 275 275 276 277 277 277 277 278 277 276 275 275 275 275
281 280 278 277 277 276 276 276 276 275 275 275 274 274 274 274 273 273 273 273 273 273 272 272 273 273 273 274 275 274 273 273 273 272 273 273 274 274
278 276 276 275 275 274 274 274 273 273 273 273 272 272 272 271 271 270 270 271 271 271 271 271 271 271 271 272 272 271 271 271 271 272 272 273 273 273
274 273 273 273 273 272 272 272 271 271 271 270 270 269 269 269 269 269 269 269 270 270 270 270 269 269 268 267 269 270 270 271 271 270 270 271 271 271
271 271 270 270 270 270 270 270 269 269 269 268 268 267 267 267 267 267 268 268 268 268 269 268 268 268 268 266 269 268 269 269 269 269 270 270 270 271
269 269 269 269 268 268 268 268 268 267 266 266 266 266 266 266 266 266 266 266 266 267 267 267 267 267 267 267 267 267 267 268 269 269 269 270 270 271
267 267 267 267 267 267 267 266 266 265 265 264 264 264 264 265 265 265 265 265 265 265 265 265 266 266 266 267 267 267 267 267 268 268 269 270 270 271
266 265 265 265 265 265 265 265 264 264 263 263 262 262 263 263 263 264 264 264 264 264 264 265 265 265 265 266 266 266 266 266 267 267 268 269 269 270

GFSNE_925_thetae_078.txt.gz
Theta_e
319 319 319 319 318 317 316 317 316 316 315 317 317 317 318 318 318 318 318 318 318 317 316 316 316 316 316 316 315 314 314 314 313 314 314 316 317 318
321 321 320 320 319 318 317 316 317 316 316 315 317 318 318 317 317 317 317 317 317 317 317 318 317 317 317 316 317 316 315 316 317 316 316 315 314 314
320 319 319 319 318 318 316 316 317 317 317 318 318 317 317 317 317 317 317 317 317 317 317 317 317 317 316 316 317 317 317 318 318 317 317 316 316 316
318 318 318 318 318 317 317 317 317 318 318 317 317 317 317 317 316 317 317 317 317 316 316 317 317 317 317 316 317 317 317 317 317 317 317 318 316 316
318 318 318 318 318 318 318 318 318 318 317 316 316 317 317 317 316 317 317 316 316 316 317 317 317 316 317 317 317 317 317 317 317 317 316 317 315 313
319 319 318 318 318 318 318 318 317 317 317 316 316 316 316 317 316 316 315 315 315 315 316 316 316 316 317 317 317 317 317 317 317 316 315 314 312 310
319 319 319 319 319 318 318 318 318 317 317 317 317 317 316 316 316 316 316 316 316 315 315 314 316 316 316 317 317 317 317 317 315 313 312 308 307 306
317 317 318 318 318 318 318 319 318 318 317 316 316 317 316 316 316 316 316 316 316 316 316 316 315 314 312 312 313 313 313 312 310 307 304 303 301 300
317 317 317 317 317 317 317 317 317 318 318 317 317 316 316 316 316 316 316 316 316 314 311 309 305 302 300 301 300 300 300 299 296 295 295 295 294 294
317 317 315 315 315 314 315 316 316 315 308 310 309 308 302 303 306 307 309 307 302 298 297 294 292 290 292 292 291 291 291 290 290 289 289 289 289 289
303 297 297 299 300 304 303 303 300 291 287 292 294 289 288 291 294 295 297 298 298 288 288 289 288 287 287 287 288 288 288 288 288 287 287 287 288 288
291 290 288 288 292 297 302 302 290 287 289 288 287 287 288 287 288 287 288 288 288 285 283 285 285 287 285 283 284 285 285 285 285 285 285 286 285 285
284 284 283 284 284 285 288 287 285 284 284 283 282 281 281 281 281 282 283 282 281 280 281 284 283 284 283 283 281 282 282 282 282 282 282 281 281 280
281 280 281 281 281 281 281 281 281 281 280 279 278 277 278 278 278 278 279 279 278 278 280 281 279 280 281 281 281 280 280 280 279 279 278 278 278 278
280 279 281 282 282 281 282 282 282 280 278 277 276 276 276 276 277 277 277 277 277 276 276 277 277 278 278 279 279 279 278 278 277 277 276 276 276 275
282 280 279 279 278 277 277 277 277 276 275 275 275 274 274 274 274 275 275 276 274 273 273 273 274 275 276 276 277 276 275 277 274 273 273 274 274 274
280 279 277 276 275 274 274 274 274 274 273 273 273 272 272 272 271 271 272 272 272 272 272 272 272 273 273 274 275 273 272 272 271 272 272 272 272 272
277 273 273 272 272 272 271 271 271 270 270 270 270 270 270 270 270 270 270 271 271 271 271 270 270 270 271 271 271 271 270 271 271 270 270 270 271 271
273 271 270 270 270 270 270 269 268 268 268 268 268 268 268 268 269 269 268 269 270 269 269 269 269 269 269 269 269 270 269 269 269 269 269 270 270 270
270 269 268 268 268 268 268 267 267 267 267 266 266 266 266 266 266 267 267 267 268 268 268 268 267 267 267 268 268 268 268 268 268 269 269 269 269 269
267 267 267 267 267 266 266 266 266 265 264 264 264 264 265 265 265 265 265 265 266 266 266 266 266 266 267 267 267 266 267 267 268 268 268 269 269 270
266 266 265 265 265 265 265 265 265 264 263 263 263 263 263 264 264 264 264 264 264 264 265 265 265 266 266 266 266 266 266 266 267 267 268 268 269 270
264 264 264 264 263 263 263 263 263 262 262 262 262 262 262 262 262 263 263 263 263 263 264 264 264 264 265 265 265 265 265 265 266 266 267 268 268 269

GFSNE_925_thetae_084.txt.gz
Theta_e
321 321 321 321 321 320 319 316 317 321 321 319 319 319 321 321 320 317 316 315 314 315 315 317 316 316 316 317 317 316 316 316 315 315 315 315 315 315
319 319 320 320 321 320 320 318 318 318 319 318 319 319 318 317 316 315 315 315 314 315 315 316 316 316 316 316 317 317 317 316 316 316 316 316 316 316
317 317 318 318 319 319 318 317 317 317 317 317 318 318 318 319 318 316 316 315 315 315 316 316 316 316 316 316 316 317 316 317 317 317 316 316 316 316
316 316 317 318 318 319 319 319 318 318 318 318 318 318 317 317 317 317 316 316 316 317 317 316 316 316 315 316 316 316 316 317 317 317 316 316 316 316
315 315 315 317 317 318 318 318 319 319 318 318 318 318 318 318 318 318 318 318 319 318 318 317 317 317 317 317 317 317 317 317 317 316 316 316 316 316
318 318 317 317 318 318 318 319 319 320 319 319 319 319 319 318 318 319 319 319 320 320 319 319 319 318 318 317 317 316 316 315 315 316 316 316 315 315
320 321 321 321 321 321 320 320 320 320 319 320 320 320 321 321 321 320 320 320 320 319 319 319 319 319 316 314 314 314 314 314 314 313 312 312 313 313
320 320 320 320 320 320 319 319 319 319 320 320 319 319 319 318 318 318 318 318 317 317 312 315 309 308 300 299 295 298 302 303 305 306 306 306 306 306
312 313 313 312 313 314 314 315 315 312 309 308 308 305 300 301 299 300 301 301 301 302 300 300 299 298 293 293 292 292 294 295 296 296 296 295 294 295
298 298 298 300 302 304 303 302 299 297 295 295 293 289 290 291 294 296 297 295 295 294 293 296 292 287 287 286 286 287 288 289 289 289 290 290 290 290
289 289 291 293 296 301 298 293 288 285 285 286 287 287 288 290 291 292 290 291 293 286 286 287 286 285 285 284 284 284 285 285 286 286 287 287 287 287
284 284 284 285 290 292 291 288 285 284 285 285 286 285 284 284 285 285 286 288 288 289 283 286 288 287 289 285 284 284 284 284 284 284 284 285 285 285
283 283 282 282 282 283 284 283 282 282 283 283 283 283 283 282 281 281 280 282 286 284 280 284 286 287 288 287 285 284 283 283 283 283 282 280 281 282
283 281 281 280 280 281 281 282 283 283 283 284 283 282 281 281 280 280 279 279 279 279 279 280 283 284 285 287 286 284 283 281 281 281 280 280 280 279
280 279 279 280 280 280 279 280 281 282 282 282 281 281 280 279 279 280 280 280 279 277 276 277 279 281 282 283 284 283 281 282 279 278 278 278 278 278
281 280 280 280 279 279 279 279 279 278 279 280 279 279 278 278 277 277 278 279 279 279 276 275 276 278 279 280 279 279 278 278 277 277 276 276 277 277
282 282 281 281 280 279 278 276 276 276 276 276 277 277 277 277 277 276 277 278 278 277 277 276 275 276 276 275 278 277 276 276 276 275 275 276 276 277
280 280 279 278 277 277 276 275 274 274 274 274 274 275 275 275 275 275 275 276 276 276 276 275 275 276 277 275 274 275 275 275 275 275 275 276 276 276
278 277 276 276 275 274 274 273 273 271 272 272 272 272 273 274 274 274 274 274 275 275 274 274 274 274 277 278 275 273 273 272 273 274 274 275 275 275
274 274 274 273 273 272 272 271 271 270 270 270 270 270 271 272 272 272 272 271 272 273 273 273 273 272 272 274 273 273 273 272 272 272 273 273 273 274
272 272 271 271 271 271 270 270 269 268 268 269 269 269 269 270 270 270 271 270 270 272 272 272 271 269 270 271 273 274 273 272 271 271 271 272 273 273
270 270 269 269 269 269 269 268 269 268 268 268 268 268 267 268 269 269 269 269 270 270 271 270 270 270 271 271 272 272 272 272 272 272 272 272 272 274
269 269 269 268 268 268 268 267 267 267 266 266 266 266 266 267 267 268 268 268 269 268 269 269 270 270 271 271 271 271 272 272 272 273 273 273 273 272

GFSNE_925_thetae_087.txt.gz
Theta_e
323 322 322 323 323 322 321 321 320 322 321 319 319 321 322 322 323 322 322 321 320 317 316 315 316 317 316 317 316 316 316 316 316 317 316 316 316 316
321 322 322 322 321 321 322 322 321 319 320 317 318 319 320 319 321 321 322 322 320 317 315 315 315 315 314 315 316 316 316 316 316 316 316 317 317 316
316 319 320 319 321 321 321 322 322 321 321 319 317 316 316 317 318 319 318 318 317 316 316 316 315 315 315 315 316 316 316 316 316 316 316 316 316 316
317 318 319 319 319 319 320 320 319 319 318 318 317 317 317 317 317 317 318 318 318 317 317 317 316 316 316 316 316 316 316 316 316 316 316 315 315 314
316 317 318 318 318 318 318 318 318 318 318 318 317 318 319 319 318 318 318 318 318 318 317 317 317 317 317 317 317 317 317 317 317 316 316 315 315 315
313 314 316 315 316 316 317 317 317 317 317 318 318 318 319 320 320 320 321 320 320 320 321 320 320 319 314 317 316 315 316 316 316 316 316 316 315 314
317 317 317 317 316 317 317 317 318 319 318 319 320 320 320 320 320 321 321 321 321 318 317 316 317 315 311 306 305 302 304 304 302 304 307 309 310 310
318 317 316 314 316 319 319 318 316 314 316 315 317 319 316 303 306 305 303 304 308 310 305 304 305 303 299 296 294 294 293 295 298 298 300 301 301 300
309 309 309 309 308 307 305 306 303 300 300 303 299 292 293 293 294 297 297 297 299 296 296 298 296 295 292 290 289 290 291 291 291 291 291 292 292 292
297 297 298 300 302 301 300 297 294 293 293 293 291 287 287 290 291 292 292 292 292 291 291 292 289 288 287 287 287 288 288 288 288 288 288 288 288 289
288 289 291 293 296 297 296 292 288 287 287 286 286 286 286 287 289 289 289 291 291 287 285 286 287 287 286 286 285 285 285 285 285 285 286 286 286 286
284 284 284 286 288 289 289 287 284 284 285 285 285 284 284 283 283 283 285 288 289 290 283 284 287 288 290 287 286 285 285 284 284 283 283 282 283 284
283 282 282 283 283 284 284 285 284 285 285 285 284 284 283 282 282 281 281 282 284 285 281 283 286 286 287 288 287 285 284 283 283 283 282 282 281 280
283 282 281 281 281 282 283 283 284 284 284 284 284 283 282 282 281 281 280 281 279 279 278 280 283 283 284 286 288 286 285 284 283 282 281 281 280 281
281 281 281 281 282 281 280 281 282 282 283 283 283 282 281 280 280 280 281 282 282 280 278 278 279 280 282 283 284 283 283 282 281 280 279 279 278 279
282 282 282 282 281 280 280 280 280 280 280 281 281 280 280 280 279 279 280 280 281 281 279 278 277 278 279 279 279 281 280 279 279 279 278 277 278 278
283 282 282 282 282 281 279 278 277 278 278 278 278 279 279 278 278 278 278 279 280 279 279 278 277 277 278 277 277 278 278 277 277 277 277 277 277 278
282 281 281 280 279 278 278 277 276 275 276 276 276 276 277 277 277 277 277 277 278 278 277 277 276 276 277 278 276 276 276 276 275 275 275 277 277 277
280 279 278 278 277 276 276 275 275 274 274 274 274 274 274 276 276 276 276 275 275 276 276 276 275 275 275 276 276 275 275 275 274 274 275 275 275 275
277 277 276 275 275 274 274 273 273 272 272 273 273 272 272 274 274 274 274 273 273 274 275 275 275 273 272 273 273 274 275 274 274 274 274 273 273 274
274 274 274 274 274 273 273 273 272 271 271 271 271 271 271 272 272 272 272 272 272 273 273 273 273 272 272 273 274 274 274 273 274 274 273 273 274 274
273 273 272 272 272 272 272 271 271 271 270 270 270 270 269 270 271 271 271 271 272 271 271 272 272 272 273 273 273 273 273 273 273 274 274 274 274 275
271 272 271 271 270 270 270 270 269 269 269 268 268 268 268 269 269 270 270 270 270 270 271 270 271 272 272 272 273 273 273 273 274 273 273 273 273 273

GFSNE_925_thetae_090.txt.gz
Theta_e
324 323 323 324 323 323 323 322 320 319 319 321 322 323 323 323 323 322 322 322 322 322 321 320 319 319 318 316 316 316 316 316 317 316 316 316 316 316
324 323 323 322 322 322 322 321 320 321 319 319 319 318 319 321 321 320 319 320 321 322 321 321 320 317 316 315 315 316 315 315 315 315 315 315 315 315
323 322 321 322 321 321 320 320 321 321 321 320 319 318 318 318 319 318 317 317 318 319 319 318 317 317 316 316 315 315 316 317 315 315 315 316 315 315
317 314 318 319 320 319 319 321 321 321 321 320 319 319 318 318 317 317 317 317 317 317 317 317 318 318 318 317 318 316 316 315 315 315 314 314 315 314
316 315 316 317 317 318 319 320 320 320 319 319 318 317 316 316 316 317 318 318 319 319 318 318 318 318 317 316 315 315 314 313 313 311 312 314 314 314
315 315 317 318 318 317 318 317 317 317 317 318 317 316 315 317 317 318 319 320 320 319 319 313 312 313 312 308 307 307 306 306 304 305 304 304 304 305
315 315 315 316 317 317 316 316 317 317 316 316 316 317 318 318 314 307 310 310 311 312 311 308 306 305 303 303 302 301 300 298 299 298 298 299 299 300
316 315 314 315 315 315 315 315 313 313 314 310 311 303 300 298 301 300 301 302 304 303 302 300 301 298 296 293 292 292 292 292 292 292 292 292 293 292
304 303 303 303 302 302 300 301 301 300 302 301 295 291 290 290 292 294 294 294 296 294 295 295 293 292 291 290 290 289 289 289 288 288 288 288 288 288
296 296 296 298 298 298 297 296 292 291 292 292 290 287 287 290 291 291 291 291 290 289 289 290 289 288 288 287 286 286 286 286 285 285 286 286 287 287
288 290 292 293 292 294 293 289 287 286 285 285 285 285 285 287 289 290 290 290 290 286 284 286 288 288 288 287 286 285 285 284 284 284 283 283 283 284
285 285 286 287 287 288 288 287 285 285 285 285 284 283 283 282 283 284 285 286 287 287 282 284 286 286 288 288 287 286 285 284 283 283 283 283 282 281
282 282 283 284 284 285 286 285 285 285 285 284 283 283 282 281 281 281 281 281 283 282 278 281 284 283 284 285 286 286 285 284 283 283 282 280 280 280
282 282 282 282 283 284 284 284 284 284 284 283 283 282 280 280 280 281 281 282 280 279 278 278 279 280 280 283 284 284 282 282 282 281 279 279 278 278
282 282 282 282 281 281 281 281 282 282 282 282 281 281 281 280 279 280 281 281 282 280 279 278 277 278 278 279 279 278 281 280 279 278 278 277 277 277
283 282 282 282 280 279 278 278 278 279 279 279 279 279 279 279 278 278 279 279 280 280 279 278 277 277 277 278 277 278 277 277 277 276 275 275 276 277
282 282 281 281 279 279 277 276 276 276 277 277 277 277 278 277 277 277 277 277 278 278 277 277 276 276 276 277 277 277 276 276 275 275 275 275 275 276
281 280 279 278 278 277 276 276 274 274 275 275 274 274 275 276 276 276 276 275 275 275 276 276 276 275 274 275 276 274 274 274 275 275 274 274 274 274
278 278 277 276 276 275 275 274 273 273 273 273 273 273 273 274 274 274 274 273 273 273 275 275 275 273 271 269 272 273 273 274 274 274 274 274 274 273
276 276 275 275 274 274 274 273 272 271 272 272 272 271 271 272 273 272 273 272 272 272 273 273 273 272 272 271 272 273 274 274 273 274 274 273 274 274
274 274 273 273 273 273 272 272 272 271 270 271 270 270 270 270 271 271 271 271 272 272 272 272 272 271 272 273 273 273 273 273 273 273 273 274 273 273
273 273 272 272 271 271 272 270 270 270 269 269 269 269 268 269 270 270 270 270 270 271 271 270 270 270 271 272 272 272 272 272 272 273 273 272 272 273
271 271 271 270 270 270 270 269 269 269 268 267 267 267 267 268 268 268 269 269 269 269 269 268 268 269 269 270 271 271 271 271 272 271 270 271 271 272

GFSNE_925_thetae_093.txt.gz
Theta_e
323 323 323 322 323 322 323 322 321 320 322 322 323 322 322 321 320 320 320 321 321 321 320 320 320 320 321 320 319 319 318 318 317 317 316 316 315 316
323 323 322 322 322 322 322 321 321 319 317 320 321 321 321 321 321 321 320 320 319 319 319 318 321 321 318 320 318 318 318 316 316 315 316 316 316 316
322 322 322 322 322 322 321 320 320 320 319 319 319 318 318 318 318 320 320 320 319 318 317 317 317 317 317 317 318 318 317 317 316 316 316 315 314 313
322 322 322 322 320 320 320 320 319 318 321 319 319 317 317 319 318 318 318 317 317 316 316 316 317 317 317 317 317 316 317 316 316 315 314 314 313 312
321 321 321 320 318 317 320 319 318 319 319 320 319 319 319 317 316 314 315 315 317 318 318 317 318 316 315 315 314 311 310 307 307 307 307 306 304 303
318 318 317 315 315 316 316 316 316 319 319 319 318 317 316 316 315 316 316 317 316 312 310 308 307 305 305 304 302 302 302 302 301 300 300 299 300 300
316 316 316 316 317 317 317 317 317 318 317 317 316 316 316 313 311 307 307 307 307 306 302 302 301 301 298 297 298 295 294 294 293 293 292 292 292 292
314 314 312 315 316 316 316 316 316 316 316 316 311 305 299 298 298 300 301 302 303 299 298 296 295 293 292 291 290 290 290 289 289 289 289 289 289 289
307 305 304 303 305 306 304 303 303 305 306 307 300 294 291 291 294 294 295 295 293 292 292 291 290 289 288 287 287 287 287 286 286 286 286 286 286 286
298 298 298 296 297 298 298 296 293 294 294 294 292 289 290 291 292 292 291 290 289 287 289 289 288 288 287 286 285 285 285 284 284 284 283 283 283 283
291 293 294 292 292 293 293 289 286 285 285 285 285 285 285 288 289 290 290 291 289 284 284 287 286 286 288 288 287 286 285 284 283 283 283 283 282 281
286 287 288 288 288 289 289 287 285 285 284 285 284 283 283 283 284 285 287 287 287 283 281 285 284 284 285 287 286 286 285 284 283 283 283 281 280 279
284 284 285 286 286 286 286 286 285 284 283 282 280 280 281 281 281 281 282 281 280 278 278 282 279 280 281 282 283 284 283 281 282 280 279 279 278 278
282 282 283 284 284 284 284 284 284 283 282 281 281 280 279 279 280 281 281 281 279 279 279 278 277 277 278 279 280 279 279 279 277 277 277 276 276 276
282 282 281 280 281 281 281 282 282 281 280 280 279 279 279 278 279 280 280 280 280 279 278 277 277 276 277 277 278 277 277 277 276 276 275 275 274 274
282 281 279 278 278 278 278 278 278 278 278 278 278 278 278 277 277 277 278 279 278 277 278 276 276 276 275 276 277 276 275 275 274 274 275 274 274 274
281 279 278 277 276 275 275 275 275 275 275 276 276 276 275 276 276 275 275 275 275 275 275 275 275 275 274 275 275 274 273 273 274 274 274 274 274 274
278 277 276 276 275 274 274 273 273 273 273 273 273 274 274 274 274 274 273 273 273 273 274 274 273 273 272 273 273 272 273 273 274 274 273 273 273 273
276 275 275 274 274 273 273 272 272 272 272 272 271 271 272 272 272 272 272 272 272 272 273 273 272 272 270 268 272 273 273 273 273 273 273 273 273 273
274 274 274 273 273 273 272 271 271 271 271 271 270 270 270 271 270 271 271 271 271 272 271 271 271 270 271 270 271 273 272 273 272 272 272 273 273 272
273 273 272 272 272 271 271 271 270 270 270 269 269 268 268 269 269 269 270 270 270 270 270 270 269 269 270 271 271 271 271 271 271 272 272 271 271 271
272 271 271 271 271 271 270 270 270 269 268 268 267 267 268 268 268 268 269 269 269 269 268 268 268 268 269 269 270 270 269 269 270 271 270 270 270 270
270 270 270 270 269 269 269 268 268 267 267 266 266 266 266 266 266 267 267 267 267 267 267 267 267 267 267 268 269 269 268 269 269 268 268 268 269 270

GFSNE_925_thetae_099.txt.gz
Theta_e
323 325 323 322 321 320 320 320 319 320 320 320 321 321 321 321 320 320 321 319 319 319 319 318 318 318 317 317 317 317 317 317 317 317 317 317 317 317
324 324 324 322 320 320 320 320 320 319 319 320 320 320 320 321 320 320 321 319 319 319 319 319 318 318 318 319 318 318 318 318 318 318 318 317 317 317
324 324 324 323 321 320 320 320 319 320 318 319 321 320 320 321 320 319 320 320 320 318 318 318 318 318 318 318 318 317 317 317 317 317 317 317 317 317
323 324 324 323 322 321 320 320 321 319 319 317 317 319 321 320 320 319 319 319 319 319 319 318 318 318 318 317 317 317 316 316 316 315 312 310 309 310
322 323 323 322 321 320 320 320 320 320 319 318 318 318 318 319 319 318 317 316 314 314 314 314 314 314 314 314 313 313 311 307 304 304 304 303 301 300
321 322 323 322 321 320 319 320 319 318 317 317 317 317 317 317 317 317 313 310 307 304 304 303 302 301 301 301 300 299 299 298 297 297 296 296 295 294
317 320 321 320 320 319 319 319 319 319 318 317 317 317 317 316 316 313 312 307 300 297 297 295 296 295 294 294 294 294 293 291 291 290 289 289 289 289
313 312 313 317 319 319 319 318 318 317 316 316 316 316 314 313 312 310 308 299 297 296 295 292 292 292 291 291 290 289 288 287 287 286 286 285 285 284
306 306 308 306 310 313 314 315 314 315 315 316 315 310 308 306 307 303 302 299 291 291 292 288 289 289 288 289 286 285 285 284 284 283 283 283 281 280
299 299 299 299 300 304 305 304 300 301 303 305 305 298 298 297 298 299 297 292 288 288 291 287 287 287 286 286 286 285 284 283 283 283 283 282 281 280
292 293 294 293 293 297 300 293 288 286 287 289 290 291 291 292 293 294 292 291 286 284 287 285 284 286 286 286 285 285 284 284 283 283 282 280 279 279
287 287 288 288 289 289 289 286 283 282 284 285 285 287 288 289 291 292 291 289 283 279 283 283 281 284 285 284 282 282 282 281 282 280 280 278 277 277
284 285 285 286 286 287 286 285 282 283 283 283 283 282 283 282 282 282 284 286 280 278 281 280 278 278 280 280 281 279 278 278 277 277 277 276 275 275
282 282 283 284 284 283 282 281 281 282 281 280 279 279 279 280 279 279 279 278 278 277 277 278 276 277 277 277 278 277 277 276 276 275 274 274 274 274
280 281 283 283 282 281 281 280 280 279 278 277 277 277 278 278 280 278 278 277 276 276 276 276 276 275 275 276 276 275 275 274 273 273 273 273 273 273
282 281 281 280 280 279 278 278 278 277 277 276 276 276 276 277 278 278 277 276 276 275 275 275 274 274 274 275 275 273 272 273 272 273 273 273 272 272
279 279 278 277 276 276 276 276 276 276 276 275 275 275 275 275 274 275 275 275 274 273 273 273 273 273 273 273 273 272 272 272 272 272 272 271 271 271
277 275 274 274 274 273 273 273 273 273 273 274 274 273 273 273 272 272 272 273 272 272 271 271 271 271 271 272 272 272 271 271 271 270 270 270 270 271
275 274 273 273 272 272 272 271 271 270 271 271 271 271 271 271 271 271 271 271 271 271 270 269 269 269 268 269 270 271 270 270 269 269 269 270 270 270
273 272 272 272 271 271 271 270 270 269 269 269 269 270 270 270 270 269 269 269 270 270 269 268 268 268 268 268 269 269 269 269 268 268 269 269 268 269
272 271 271 271 271 270 270 269 269 268 268 268 268 268 268 268 268 268 268 268 268 268 267 267 266 267 267 268 268 268 267 267 268 268 268 268 268 268
271 270 270 270 270 269 269 268 268 267 266 266 266 266 267 267 266 267 267 267 266 266 266 266 266 266 266 267 267 266 266 266 267 267 267 267 268 268
269 269 269 268 268 268 268 267 267 266 265 265 265 265 265 265 265 265 265 266 265 265 265 265 265 265 265 266 265 265 265 265 265 266 268 267 267 268

GFSNE_925_thetae_102.txt.gz
Theta_e
324 325 325 324 323 321 321 321 321 322 321 319 319 319 320 319 319 319 319 320 320 319 318 317 317 317 316 316 316 316 316 316 316 316 316 316 317 317
325 325 324 324 323 321 320 321 321 320 320 320 320 320 320 320 320 320 319 319 320 320 319 318 318 318 318 317 317 317 317 317 317 317 317 317 317 317
323 324 324 324 322 321 320 320 320 319 318 318 319 320 320 320 321 320 320 319 319 319 318 318 318 318 318 318 318 318 318 317 317 316 316 316 315 314
320 321 321 322 323 321 320 320 320 320 319 317 318 319 320 320 320 319 318 317 318 318 319 318 318 318 318 317 318 318 316 316 315 314 313 312 307 304
320 321 322 322 323 321 320 320 320 319 319 318 317 319 319 319 319 318 318 318 316 314 316 316 315 314 314 313 311 311 310 310 310 307 303 302 300 299
319 319 320 321 323 323 320 320 320 319 319 319 318 317 318 317 317 315 310 309 306 306 306 307 305 304 304 305 304 300 299 298 297 296 295 294 293 292
315 315 316 321 322 321 320 320 319 319 318 318 317 317 316 315 315 313 309 306 301 300 302 299 299 297 295 294 294 294 292 291 290 290 289 289 288 288
309 307 307 309 315 319 319 319 319 318 318 317 316 316 316 316 316 314 308 299 296 296 296 292 293 292 291 291 289 288 288 287 286 286 285 284 282 281
304 303 302 303 304 308 312 313 314 316 317 317 316 316 313 314 315 309 306 302 294 292 293 288 289 288 288 287 286 285 284 284 283 283 283 282 281 280
299 299 298 298 299 304 302 305 302 303 304 309 310 304 305 306 305 305 303 296 290 290 291 287 287 286 286 286 285 284 284 283 283 283 282 282 281 280
292 293 294 294 294 297 299 292 288 287 288 292 292 292 293 294 297 298 292 291 286 285 288 286 286 286 285 285 285 285 284 283 283 282 282 281 279 278
287 286 288 289 291 292 291 287 284 283 286 289 290 291 291 292 292 293 292 290 284 283 285 284 284 286 284 280 281 281 282 281 280 279 278 277 277 276
284 284 284 285 286 288 287 285 282 284 284 283 283 283 283 284 286 287 288 289 284 280 281 281 280 282 282 280 278 278 278 277 277 277 276 276 275 274
281 282 282 281 281 282 282 283 283 284 283 281 280 279 279 278 278 279 278 278 278 278 278 278 277 277 278 278 278 277 276 276 275 274 274 274 274 274
280 279 280 280 280 280 281 281 281 279 278 277 277 277 278 278 277 277 277 277 276 276 276 276 276 276 276 276 276 275 275 274 273 273 273 273 273 272
281 279 279 279 279 278 278 278 277 277 276 275 275 276 277 277 277 276 276 276 275 274 274 274 274 275 275 275 274 273 273 273 272 272 272 272 272 271
279 279 278 277 276 275 276 276 276 276 276 276 275 275 275 275 275 276 276 276 275 273 272 273 273 273 273 274 273 272 272 272 272 271 271 271 270 271
277 274 274 273 273 273 272 272 273 273 273 274 274 273 273 273 272 273 273 273 273 272 271 271 271 272 272 272 272 272 271 271 270 269 269 269 270 270
274 273 272 272 272 271 271 270 270 270 271 271 272 272 272 271 271 271 271 272 271 271 269 269 269 269 269 270 270 271 269 269 269 269 268 269 269 270
272 272 271 271 271 270 270 270 269 269 270 270 270 270 270 270 270 269 269 270 270 270 269 268 267 268 268 268 268 268 268 268 268 268 268 268 268 270
271 271 271 270 270 270 269 269 268 268 268 268 268 268 268 269 268 268 268 268 268 268 267 267 266 267 267 267 267 267 267 267 267 267 267 268 268 268
270 270 270 270 269 269 268 268 267 267 266 266 266 267 267 267 267 267 267 266 266 266 266 266 266 266 266 266 266 265 265 266 268 268 268 267 268 268
269 269 269 268 268 268 267 267 266 266 265 265 265 265 265 266 265 265 265 265 265 265 265 265 265 265 265 265 265 264 264 265 265 267 268 268 267 267

GFSNE_925_thetae_105.txt.gz
Theta_e
325 324 324 324 325 324 322 322 323 324 322 319 319 321 320 321 320 319 318 318 319 319 318 317 316 316 316 316 316 316 316 316 317 317 317 317 317 317
323 323 324 325 325 324 324 323 322 322 324 321 320 320 320 320 320 319 318 317 318 319 319 318 317 317 316 316 316 316 316 316 316 316 316 316 317 316
324 324 324 325 324 324 323 322 322 323 323 320 319 320 320 320 320 319 319 318 318 319 319 319 318 318 317 317 317 317 317 317 317 317 317 316 315 314
323 323 323 323 323 323 322 322 321 321 322 319 319 319 318 319 320 319 318 318 318 318 319 319 318 318 317 317 317 317 317 317 317 316 315 314 310 309
321 321 320 321 322 321 321 321 321 320 320 318 317 318 318 319 318 316 316 314 314 314 316 317 318 318 317 317 316 315 314 313 311 310 308 304 301 298
319 318 318 318 319 321 322 321 320 320 319 319 317 317 318 317 317 314 306 305 304 307 309 310 310 308 307 307 306 304 302 302 300 297 296 295 293 291
315 315 314 311 314 320 321 321 320 320 320 319 318 318 317 316 313 309 303 299 297 298 298 296 298 296 293 294 292 292 291 291 291 290 289 288 288 288
311 308 307 307 306 313 319 320 319 319 319 319 318 318 317 316 313 309 299 297 296 294 294 291 294 292 291 291 290 289 288 287 286 286 285 285 284 282
304 301 303 302 303 303 306 311 310 315 318 318 317 317 313 315 313 306 302 302 295 293 294 288 290 289 288 286 286 285 285 284 284 283 283 282 281 280
296 296 297 298 300 301 301 302 297 300 305 308 306 306 313 314 315 310 307 298 292 291 292 287 286 286 286 285 285 285 284 284 284 283 282 282 281 280
290 291 292 293 295 298 300 294 289 288 291 294 294 295 298 302 304 307 298 295 288 287 288 286 285 284 285 285 284 284 284 283 283 282 281 280 279 279
285 285 286 288 292 292 293 291 286 285 288 292 291 292 293 292 295 296 293 290 286 285 285 285 285 285 281 281 282 282 282 281 280 280 279 278 277 278
283 283 283 283 284 287 287 285 282 285 285 285 284 284 287 288 288 290 291 291 287 280 283 285 284 284 283 280 279 278 279 278 278 277 277 276 275 275
280 281 281 281 281 281 281 281 283 283 283 281 279 278 278 278 280 281 282 283 283 281 280 283 283 282 283 283 282 279 278 277 277 276 276 275 275 275
278 279 280 281 281 281 282 283 282 281 279 278 277 277 277 277 276 276 276 276 276 276 276 277 278 278 280 281 279 278 277 276 275 275 275 275 275 275
280 279 279 279 279 278 278 278 277 277 278 277 277 277 277 277 277 277 277 276 276 275 275 275 275 277 277 277 277 276 275 276 275 274 273 274 274 274
279 278 277 277 276 276 275 275 276 276 277 277 277 276 276 276 276 277 277 277 276 275 274 273 273 274 275 275 275 274 274 274 273 273 272 273 274 274
276 276 276 276 275 275 275 274 274 275 275 275 275 275 275 275 275 275 275 275 274 274 273 272 273 273 274 273 273 273 273 273 272 272 272 272 273 274
275 275 274 274 274 273 273 272 272 272 272 273 274 274 274 273 274 274 274 274 273 272 271 271 272 273 275 276 272 271 271 271 271 271 271 271 272 272
273 273 273 272 272 272 271 271 270 270 270 271 271 271 272 272 272 272 273 273 273 272 271 270 270 270 272 272 272 271 269 269 270 270 271 271 271 271
272 272 271 271 270 269 269 268 268 268 268 269 269 269 270 271 271 270 270 270 271 271 270 270 268 267 269 269 271 270 269 268 267 268 269 270 272 272
270 270 270 269 269 268 268 267 268 268 268 268 267 268 268 269 269 269 269 270 269 269 269 268 268 268 268 269 270 269 269 268 268 267 267 268 270 273
268 269 268 268 267 267 267 267 266 266 266 266 266 266 266 267 267 267 267 267 267 267 267 267 267 267 267 267 267 268 267 268 268 269 269 268 267 268

GFSNE_925_thetae_108.txt.gz
Theta_e
329 328 327 326 326 326 325 324 324 326 325 324 323 321 322 323 322 321 320 320 318 317 317 317 317 317 317 317 318 318 317 317 317 317 318 318 318 318
328 328 326 326 325 325 326 326 325 324 326 324 324 323 321 321 321 320 320 320 319 318 317 318 317 317 316 317 318 318 317 317 316 316 316 317 317 316
328 327 326 326 325 325 326 326 325 325 325 323 324 324 323 321 321 320 320 320 319 319 319 319 318 317 316 316 316 316 316 316 316 316 316 316 316 316
326 325 326 325 325 325 325 325 325 324 325 324 323 323 322 321 319 319 320 320 320 319 318 319 319 318 318 317 317 316 316 316 316 316 317 316 315 313
326 325 325 325 325 325 324 324 323 323 323 323 322 322 321 319 320 320 319 318 318 317 317 318 318 318 318 317 317 316 316 316 316 315 312 309 307 305
322 321 320 320 319 319 319 322 322 322 322 322 321 319 319 319 319 313 308 307 306 307 310 312 314 314 314 314 315 314 312 310 309 307 304 301 298 295
318 316 315 314 314 312 313 316 321 321 321 321 320 319 318 318 313 309 304 301 297 298 299 298 301 302 300 302 301 303 302 300 297 295 293 293 292 292
311 308 306 306 304 305 307 312 316 319 320 320 320 318 318 317 314 307 299 297 295 294 293 292 294 292 292 293 293 293 293 292 291 291 289 288 288 285
301 299 298 299 298 300 302 302 306 307 313 318 319 318 318 317 312 306 303 302 296 293 294 288 291 290 289 288 288 287 287 287 287 286 285 283 281 280
293 294 294 295 296 296 298 298 298 299 300 306 307 305 311 313 310 308 304 298 294 292 293 287 287 286 286 286 286 285 285 284 284 283 282 282 281 280
288 289 289 289 290 291 292 291 288 288 289 291 292 293 297 303 304 306 296 295 291 290 290 287 285 284 285 285 285 285 284 283 283 283 283 282 280 279
284 284 284 285 287 290 289 288 284 284 289 290 290 294 294 295 297 298 296 295 288 287 287 286 284 284 281 282 283 283 283 283 282 281 279 278 278 281
282 282 282 282 282 283 285 284 282 283 284 284 284 283 286 286 288 291 292 292 287 281 283 285 284 284 282 280 280 280 281 280 279 279 278 277 276 276
280 280 280 281 281 281 281 281 282 282 282 281 280 279 278 278 279 281 282 283 283 281 282 285 284 285 283 282 282 280 281 280 280 280 279 278 277 277
279 279 281 282 282 282 282 282 282 281 280 279 279 278 278 278 278 278 279 279 279 279 281 284 285 284 285 285 283 282 281 279 278 277 277 277 278 277
280 280 280 280 280 279 280 280 280 280 281 281 280 280 279 279 279 279 279 278 277 276 276 278 279 280 281 280 280 279 278 279 277 276 275 276 277 277
281 282 282 281 280 280 280 280 281 281 281 281 281 280 280 280 280 280 280 279 279 278 277 276 276 277 277 278 278 278 277 277 276 276 275 276 277 277
280 280 280 279 279 279 278 278 278 279 279 279 279 279 279 279 279 278 279 279 278 277 276 276 276 276 276 275 276 276 276 276 275 274 274 275 277 277
279 279 278 278 277 277 276 276 276 275 276 278 278 278 277 277 278 278 278 277 276 275 275 275 276 278 279 281 274 272 275 274 274 275 275 275 275 276
277 277 277 276 276 275 275 275 275 275 275 275 276 276 277 277 277 277 277 277 276 275 274 274 274 275 277 278 276 274 271 272 273 274 274 274 274 274
275 275 275 274 274 274 273 272 272 272 273 274 274 274 275 275 275 274 273 273 275 275 274 273 271 270 271 272 275 274 273 270 269 270 271 272 275 276
274 274 273 273 273 273 272 272 272 272 272 272 272 273 273 273 273 273 274 274 274 274 272 272 271 271 272 272 273 273 273 272 271 270 270 269 272 275
272 272 272 272 271 271 271 271 270 270 270 270 271 270 271 271 272 272 272 271 271 271 271 271 271 270 271 271 270 272 272 271 272 272 273 271 270 269

GFSNE_925_thetae_111.txt.gz
Theta_e
334 333 332 332 330 330 329 327 328 328 328 326 327 325 323 323 323 324 324 321 320 319 317 317 319 319 318 317 317 317 316 317 317 317 317 317 318 318
333 332 331 330 329 329 329 328 327 327 329 326 326 326 324 323 323 324 324 322 321 319 317 316 317 319 319 318 317 317 317 317 317 317 317 318 317 318
331 331 330 330 329 328 328 327 328 327 328 326 326 326 326 324 323 323 322 321 320 320 318 317 317 317 317 317 317 317 317 318 318 318 317 316 317 316
330 330 330 329 329 328 327 327 327 327 326 327 326 326 325 323 322 322 321 321 319 320 319 318 317 317 317 317 317 316 317 317 316 316 316 316 316 316
330 329 328 328 327 327 327 326 327 326 325 325 325 324 325 324 323 321 320 320 320 320 318 318 318 318 318 318 317 316 316 316 316 316 315 315 314 311
328 327 326 325 324 323 321 323 324 324 324 323 323 323 323 322 322 318 314 316 315 314 318 318 318 318 318 318 318 317 316 316 316 314 313 311 307 304
324 321 319 318 317 317 315 314 315 319 321 321 322 321 321 320 313 311 305 304 301 301 307 306 308 310 310 312 312 313 313 313 312 308 307 304 301 298
313 311 309 308 308 308 307 305 305 306 312 321 321 321 319 319 314 308 300 298 296 296 298 294 297 297 296 298 299 300 300 298 301 300 297 295 294 294
302 299 298 298 298 298 299 299 298 300 300 304 311 314 317 318 315 306 303 303 296 294 296 290 292 292 291 291 291 290 292 292 293 292 292 291 290 288
295 294 294 293 295 296 294 294 293 292 292 294 294 298 303 314 313 309 305 298 294 293 297 289 289 287 289 287 288 288 287 288 288 287 287 285 283 281
287 288 289 290 290 290 291 289 288 287 288 290 291 292 296 303 309 309 298 296 292 291 292 288 286 285 286 285 285 285 284 284 284 283 283 283 282 281
284 284 285 286 289 289 288 286 283 283 286 290 291 292 293 296 297 298 296 297 290 289 289 286 284 285 282 283 284 283 283 283 283 283 283 281 278 282
283 283 283 283 284 286 287 284 282 283 283 282 282 283 286 287 288 291 294 294 290 283 286 286 285 283 282 281 281 282 283 282 282 281 279 278 278 279
281 281 281 282 282 282 282 282 283 283 282 281 280 279 279 279 280 283 285 285 285 284 285 285 285 284 281 281 281 281 281 281 281 280 280 279 278 278
281 281 282 282 282 283 283 283 283 282 281 280 280 279 279 279 279 280 282 283 284 284 284 286 286 285 284 285 282 282 282 281 280 280 279 279 279 279
283 283 283 282 282 282 282 282 282 282 283 283 282 282 281 281 281 281 280 280 279 280 282 284 285 285 284 284 284 283 282 280 279 278 277 277 278 278
283 282 282 283 282 282 282 281 282 282 282 283 283 282 282 282 282 281 281 280 279 278 278 279 279 280 280 281 280 280 279 278 278 277 276 277 278 279
281 281 280 280 280 280 280 280 279 280 281 281 281 281 282 281 281 281 281 280 279 278 278 278 277 277 278 277 278 279 278 278 277 276 276 277 278 279
280 280 280 279 278 278 278 278 278 278 279 279 280 280 280 280 281 280 280 279 278 278 277 278 278 280 280 281 275 276 277 276 276 276 276 276 277 277
278 278 278 277 277 277 277 277 277 277 277 278 278 279 279 279 279 280 280 279 278 277 277 277 277 278 281 281 278 275 272 274 275 276 276 276 275 275
277 276 276 276 276 276 276 275 275 274 275 276 276 277 277 278 277 276 275 276 277 277 277 275 272 273 274 275 277 276 274 273 271 272 273 274 275 277
276 276 275 275 275 275 275 275 275 274 275 275 275 275 276 276 276 276 276 277 276 276 275 273 273 273 274 275 276 275 275 274 273 273 272 272 273 276
274 275 275 274 274 274 274 273 273 273 272 273 273 273 274 274 274 274 274 274 274 274 273 273 273 273 273 273 273 274 274 273 274 274 274 273 273 272

GFSNE_925_thetae_114.txt.gz
Theta_e
335 334 333 332 331 330 330 330 329 327 325 328 327 326 326 326 326 325 326 326 326 326 325 325 323 320 318 318 317 316 316 315 315 315 315 315 315 316
333 329 332 331 328 331 331 329 328 327 324 326 326 327 326 325 324 324 323 324 325 325 324 324 323 319 319 319 318 317 316 316 315 315 315 316 316 317
334 332 331 322 327 330 329 328 328 327 325 326 326 326 327 326 324 322 324 323 324 324 323 321 320 318 319 319 318 318 317 317 316 316 317 317 317 317
333 333 331 329 330 329 329 329 328 328 327 325 326 326 326 326 325 323 324 322 323 323 321 320 318 316 318 319 319 318 317 317 317 317 317 317 317 318
333 332 331 330 330 329 328 328 328 328 327 327 326 326 325 325 325 323 322 322 321 322 321 320 318 316 316 318 318 318 317 317 317 317 318 317 317 316
331 330 330 329 329 328 326 325 325 325 326 326 325 324 324 324 324 322 318 318 319 319 320 319 319 317 316 317 317 317 317 316 316 316 316 315 315 313
328 327 324 324 324 324 322 318 318 316 317 321 321 322 323 322 321 316 312 309 307 309 315 316 318 317 317 317 317 316 316 316 316 315 315 314 312 311
317 311 309 313 313 314 313 316 314 310 307 309 318 320 321 321 320 316 307 300 298 300 304 300 302 307 308 306 308 311 313 313 312 310 309 309 307 306
305 304 303 303 307 306 304 306 302 300 299 299 300 302 304 315 313 311 307 306 299 297 299 290 293 292 294 294 295 300 298 296 298 300 298 296 293 292
295 294 297 297 299 302 301 297 294 293 292 293 292 291 293 301 307 309 307 299 295 294 296 289 289 288 290 291 292 291 292 290 290 291 291 293 293 292
287 289 290 291 291 294 296 290 288 287 288 289 289 290 294 298 302 306 300 296 292 292 292 288 287 285 286 286 287 288 289 290 291 290 291 289 288 286
284 285 285 286 287 288 289 289 284 283 287 289 290 291 292 294 297 299 297 298 291 290 291 287 285 286 283 284 284 284 284 284 284 284 284 284 283 283
283 284 284 284 284 283 284 284 283 283 284 284 284 284 285 286 289 292 294 294 292 285 288 289 286 284 283 282 282 283 283 282 282 282 282 280 279 282
283 283 283 283 283 283 283 282 282 282 282 281 281 280 280 280 281 283 286 288 288 286 286 287 286 283 282 281 281 281 282 282 282 281 281 279 278 278
283 283 283 283 283 283 283 284 284 283 282 282 282 282 282 282 281 282 283 284 285 285 286 287 287 286 284 282 281 281 281 281 281 281 280 279 280 279
283 283 283 283 282 282 282 283 283 283 283 282 282 282 282 282 282 282 282 282 282 282 284 285 285 285 284 283 282 282 282 281 280 280 279 279 278 278
281 280 280 280 280 280 280 280 281 281 282 282 282 282 282 281 282 281 281 280 279 279 279 282 283 283 283 283 282 281 280 279 279 278 277 277 278 278
280 280 279 279 279 279 279 278 279 280 280 280 280 281 281 281 281 281 280 279 279 278 278 279 280 280 280 279 279 279 279 278 278 277 276 276 277 278
278 278 278 277 277 277 277 278 278 278 279 279 279 280 280 280 280 280 279 279 278 278 278 279 279 279 280 278 275 277 277 277 276 276 276 276 277 278
277 277 276 276 276 276 276 275 275 276 277 277 278 278 279 278 278 278 279 278 277 277 277 276 276 276 279 278 277 275 276 275 275 276 276 276 276 276
276 276 275 275 275 275 275 275 275 275 275 276 276 276 277 277 277 276 277 277 277 277 275 273 273 274 275 277 275 274 274 273 273 274 274 273 274 276
274 275 275 274 274 274 274 273 274 273 273 274 274 274 275 276 276 276 275 276 276 275 274 273 273 274 275 276 276 275 274 274 273 273 273 273 272 274
272 272 273 272 272 272 272 273 272 272 272 272 272 272 273 274 274 274 274 274 274 274 274 273 273 273 273 273 274 274 274 273 273 274 274 274 274 274

GFSNE_925_thetae_117.txt.gz
Theta_e
335 333 332 331 331 331 329 328 327 325 324 326 328 329 329 329 328 328 328 327 327 325 325 326 327 326 324 319 317 316 316 315 314 314 314 314 315 315
334 334 332 331 330 330 329 328 328 325 325 327 327 327 327 327 327 328 327 327 326 326 326 326 326 326 325 321 318 317 317 316 315 315 314 315 315 315
333 333 332 331 330 330 329 327 328 329 325 325 326 326 326 326 326 325 326 324 324 324 325 325 326 326 325 323 319 318 317 317 316 315 315 314 315 314
332 332 330 331 330 329 326 322 323 327 326 323 325 325 325 326 326 325 324 322 322 322 323 325 325 325 325 322 319 319 318 317 316 316 315 315 315 316
332 331 331 329 326 325 324 327 325 327 327 326 325 326 325 326 325 325 324 322 322 322 322 323 324 325 324 322 319 319 319 318 317 317 316 316 316 317
331 331 331 329 325 324 326 327 327 327 327 326 325 325 325 325 325 323 322 322 322 323 322 322 322 323 323 321 318 318 320 318 318 317 317 317 317 317
328 329 330 328 327 327 327 327 327 325 323 323 322 322 322 323 323 322 320 318 316 317 319 319 319 318 319 318 315 315 318 318 318 317 317 317 317 317
318 316 317 322 324 325 327 324 322 320 316 316 318 319 320 321 322 321 317 305 303 306 306 302 305 308 312 316 316 316 316 317 317 316 316 314 314 313
299 299 301 304 314 314 312 313 314 314 314 311 308 304 304 307 309 313 314 307 304 301 302 291 294 296 298 301 311 315 316 316 313 315 315 312 311 309
291 292 293 295 294 299 301 301 298 299 300 301 300 294 295 299 301 306 307 302 297 296 298 290 290 288 290 290 291 301 308 306 304 305 305 301 295 294
286 288 288 289 289 290 291 287 285 284 285 292 291 291 292 296 300 301 301 298 292 293 294 289 287 286 286 286 287 289 289 290 289 288 289 290 291 291
285 285 285 285 287 289 287 284 282 282 285 288 288 290 291 293 296 297 297 298 291 291 291 288 286 286 284 284 284 284 284 285 288 289 287 289 289 289
284 285 285 284 286 285 284 283 282 282 283 284 283 284 287 288 289 291 294 297 294 289 290 290 287 285 284 283 283 283 283 282 283 283 283 283 284 284
284 284 284 284 284 284 284 283 283 283 283 282 282 282 282 282 283 285 287 289 291 291 289 290 287 285 282 282 281 282 282 282 283 283 283 283 283 283
282 282 282 282 282 283 283 283 283 283 283 282 282 282 282 282 283 283 284 285 286 287 287 288 289 286 285 282 281 281 280 281 282 281 280 279 278 278
280 280 280 280 281 281 281 282 282 282 282 282 282 282 282 283 283 283 282 283 282 282 284 285 284 286 283 283 282 281 281 281 281 280 280 280 279 279
278 278 278 278 278 278 279 279 280 280 281 281 281 281 281 281 281 281 281 281 280 279 280 282 283 284 283 282 282 281 281 280 280 280 279 278 278 279
277 277 276 276 276 277 277 277 278 279 279 280 280 280 281 281 280 280 280 280 279 279 280 281 281 281 281 280 280 280 280 279 279 279 278 278 278 278
276 276 276 276 276 275 275 275 276 277 278 278 278 279 280 280 279 279 279 279 279 279 280 280 281 281 280 278 277 279 279 278 278 277 276 276 277 278
275 275 275 275 275 274 275 275 275 275 276 276 277 277 277 278 278 277 277 277 277 276 275 276 278 279 279 277 276 275 276 276 276 276 276 276 276 276
273 274 273 273 273 274 273 273 273 274 274 274 275 275 276 276 276 276 276 277 277 275 274 273 274 277 277 277 274 273 274 275 275 276 275 275 275 275
271 271 271 271 271 272 272 272 272 272 272 272 272 273 274 275 275 275 275 275 274 274 273 273 274 274 275 277 275 274 274 273 273 273 273 273 274 275
270 270 270 269 269 269 270 270 270 270 270 271 271 272 272 273 273 273 274 273 273 273 273 273 273 273 274 274 275 274 273 273 273 274 274 274 274 274

GFSNE_925_thetae_123.txt.gz
Theta_e
316 329 328 328 328 328 328 328 327 328 326 326 326 328 328 328 329 329 329 328 328 325 323 323 323 322 324 323 324 323 320 319 317 316 315 314 315 314
314 322 329 330 329 329 329 328 328 328 327 325 326 327 328 328 328 328 328 328 328 327 324 323 323 323 322 323 324 324 322 319 318 316 315 314 314 314
312 317 326 330 329 330 329 329 328 328 327 327 324 325 327 327 329 328 328 328 328 327 327 326 325 323 324 325 325 325 323 319 318 316 315 314 314 314
311 313 321 328 329 330 329 328 329 327 328 326 324 324 326 327 328 328 328 327 328 327 327 327 326 325 324 324 325 325 323 321 318 317 315 315 314 314
311 314 318 325 328 328 328 328 328 327 326 327 324 322 323 325 325 325 327 327 327 326 326 325 322 322 323 325 325 324 325 323 320 319 316 315 315 314
312 314 317 323 328 328 328 328 328 327 326 326 324 322 323 323 324 322 322 323 322 324 322 323 320 319 319 321 322 322 323 323 321 318 317 315 315 314
313 314 315 319 326 327 328 328 327 325 325 325 324 321 322 322 322 322 321 321 321 321 321 320 318 317 317 317 319 320 321 316 318 319 317 316 316 315
299 302 309 314 317 324 326 327 326 324 324 323 323 323 322 322 322 321 318 313 311 317 317 314 313 312 311 311 314 316 318 318 318 316 318 317 317 316
290 291 293 297 300 302 310 313 319 320 321 322 322 323 322 322 322 319 317 317 313 310 314 303 303 302 302 301 305 313 315 314 316 318 318 318 318 317
287 287 288 290 293 294 293 296 293 296 301 307 314 309 314 317 318 320 319 313 304 305 305 294 294 293 293 295 297 302 309 311 312 313 314 318 318 318
285 286 286 286 288 293 292 286 286 286 287 285 288 291 293 297 302 308 308 305 293 296 299 298 290 288 289 290 291 293 298 303 308 311 310 315 315 315
283 284 284 285 286 287 288 286 285 284 288 290 289 290 289 291 292 294 299 300 293 292 296 296 288 289 285 285 287 289 290 292 296 298 300 300 307 310
281 282 283 283 283 284 284 283 283 284 285 285 285 287 287 288 290 289 291 294 295 293 293 295 288 287 286 283 284 286 288 288 289 289 289 290 291 293
280 280 281 281 281 282 282 283 283 283 283 283 283 283 283 284 285 286 286 288 290 290 290 291 289 288 284 282 282 283 284 285 287 287 287 288 289 290
277 278 278 278 279 279 280 281 281 281 281 282 282 282 282 283 285 285 286 286 287 287 288 289 290 288 288 284 282 281 282 282 284 284 284 285 286 287
276 276 276 276 277 277 278 278 278 279 279 280 280 281 282 282 282 283 283 284 284 283 284 286 286 286 285 284 283 281 281 280 281 282 283 283 283 283
274 274 274 274 274 274 275 275 276 276 277 277 278 279 279 281 281 282 282 281 280 281 281 282 284 285 284 282 282 281 281 280 281 281 281 280 281 281
273 273 273 273 273 273 273 273 273 274 274 275 276 277 277 278 279 281 281 280 280 280 280 281 282 282 282 280 281 281 280 280 280 280 280 279 279 280
270 270 270 271 271 271 271 271 271 272 273 273 274 274 275 276 276 277 279 279 278 278 278 280 281 282 281 279 279 280 280 279 279 279 279 279 279 279
269 269 269 269 269 269 269 269 270 270 271 271 272 273 274 274 274 275 276 276 276 276 276 277 278 279 279 278 277 277 279 279 279 278 277 278 278 279
268 268 268 268 268 268 268 269 269 268 268 269 270 271 272 272 273 273 275 275 275 274 273 274 275 277 277 277 275 274 276 278 278 278 277 276 276 277
268 268 268 267 267 268 267 267 267 267 267 267 268 269 271 272 272 272 273 273 273 273 273 274 275 276 276 275 273 273 273 274 275 275 275 275 275 275
269 268 268 267 267 267 266 266 266 266 265 265 266 267 269 270 271 271 272 272 272 272 272 273 274 275 275 274 273 273 273 272 273 273 273 273 273 274

GFSNE_925_thetae_126.txt.gz
Theta_e
304 309 312 324 326 326 325 324 324 325 324 324 325 326 325 327 329 329 330 329 329 329 328 324 323 323 326 326 324 325 325 324 323 321 320 318 317 315
303 305 310 314 327 326 326 325 324 324 325 324 325 327 326 325 329 328 328 328 328 328 328 325 323 323 324 324 324 324 325 324 322 321 320 319 317 316
304 305 308 313 318 326 327 326 326 325 326 326 325 326 326 325 327 328 327 327 328 328 328 327 323 322 323 323 323 324 323 323 322 321 319 318 317 315
303 305 307 311 315 321 327 327 327 327 327 327 326 324 324 325 328 327 325 328 327 327 328 327 325 323 323 323 323 323 322 323 323 322 320 318 317 315
302 307 309 310 313 316 323 325 327 327 326 327 326 323 322 323 325 325 323 323 325 327 327 327 327 326 325 325 324 324 324 325 324 324 322 320 317 316
298 301 305 309 313 315 320 323 326 326 326 326 326 320 321 321 323 322 321 322 323 324 325 325 326 325 323 323 322 322 321 321 322 324 322 321 318 316
297 301 306 310 313 314 318 322 322 326 326 325 325 322 321 321 321 321 322 319 319 320 320 321 321 321 320 319 319 320 321 322 322 320 318 320 319 317
291 293 297 302 304 311 314 312 318 325 325 325 325 324 323 322 322 320 318 314 312 317 317 312 313 315 315 315 316 317 318 319 320 320 321 319 317 318
287 288 289 291 296 297 300 298 303 307 309 317 323 323 322 321 322 320 318 318 318 316 314 304 305 307 307 308 309 313 315 315 315 318 319 319 317 316
285 286 286 287 289 292 295 291 290 292 294 295 294 295 304 311 316 319 318 315 311 312 310 296 296 297 297 299 303 307 310 311 313 314 314 316 315 313
282 284 284 285 285 286 289 289 288 288 289 291 291 290 290 295 300 308 308 307 294 301 302 302 292 290 291 293 294 297 301 303 306 309 311 314 315 310
280 281 282 283 283 283 284 284 285 285 288 288 290 291 289 294 295 295 296 297 293 293 297 297 289 292 286 288 290 291 292 294 297 301 305 309 310 307
278 279 280 280 281 281 281 282 282 283 284 284 284 286 286 286 289 292 293 292 292 291 290 293 290 290 288 284 285 287 289 291 292 292 294 297 299 302
277 277 277 278 278 279 279 279 280 281 282 282 282 282 282 282 284 285 288 289 288 289 289 291 289 288 285 283 283 283 285 287 288 287 288 288 291 293
275 275 275 275 275 275 277 276 277 278 278 279 280 281 281 282 284 285 285 285 285 286 288 290 290 288 287 284 282 282 283 283 285 286 286 287 288 288
273 273 273 273 273 273 273 274 274 275 275 276 277 278 279 281 281 282 282 283 282 282 283 285 286 287 284 284 283 282 282 281 282 283 284 284 284 286
271 271 271 271 271 271 271 271 271 272 273 273 274 275 276 277 279 280 281 281 280 281 281 281 282 283 283 283 282 281 281 280 281 281 282 281 282 282
269 269 269 269 269 269 269 269 269 270 270 271 272 272 274 275 276 277 279 279 279 278 279 281 282 282 282 281 281 281 280 280 280 281 281 280 280 281
268 267 267 267 268 267 267 267 267 267 268 269 270 270 271 273 274 275 275 276 277 276 277 278 279 282 281 280 279 280 280 280 280 280 280 280 279 280
267 267 266 266 266 266 266 266 265 266 266 267 268 269 270 270 271 272 273 273 274 275 275 275 276 277 279 279 277 277 279 279 279 278 278 279 279 279
267 267 267 266 266 266 265 265 265 265 265 265 266 267 268 269 270 271 272 273 273 273 274 274 275 276 277 277 277 275 277 278 279 279 278 278 277 278
268 267 267 267 267 266 266 265 265 265 264 265 265 266 267 268 268 269 270 270 271 272 272 273 274 275 276 276 274 273 274 275 276 277 277 276 277 278
267 267 268 267 267 267 266 266 265 265 265 264 264 265 266 267 268 269 269 270 270 270 271 272 273 274 274 274 274 273 273 273 273 273 274 274 275 275

GFSNE_925_thetae_132.txt.gz
Theta_e
298 301 302 304 306 310 315 317 327 332 332 329 330 328 326 326 327 328 329 329 325 323 323 331 332 331 330 329 328 327 325 324 323 324 327 327 327 326
296 298 300 303 304 306 310 315 320 326 332 326 327 328 328 327 327 328 328 328 327 323 322 328 332 331 331 330 329 328 327 323 323 326 326 326 327 325
295 297 298 301 302 305 306 311 316 323 328 327 326 327 329 329 329 329 329 329 328 326 323 325 330 331 331 330 329 328 325 323 325 325 327 326 326 324
293 294 296 297 299 304 306 307 312 318 324 329 326 326 328 329 329 330 330 329 329 328 323 324 325 330 331 330 329 328 324 323 324 325 325 325 324 324
291 293 294 296 299 301 303 307 309 313 321 324 326 324 327 328 329 329 330 330 329 329 328 326 325 326 330 330 329 328 324 323 324 325 325 325 325 323
287 289 294 295 297 299 300 306 309 311 317 321 324 325 325 326 328 329 330 329 327 327 325 325 325 325 327 329 328 327 324 324 323 325 324 324 323 324
284 285 286 288 291 294 297 302 305 311 314 319 322 323 325 325 326 327 328 326 325 325 324 325 325 325 325 327 328 327 324 323 322 324 323 324 324 324
282 283 284 285 289 289 289 288 294 298 303 313 319 322 322 323 324 324 325 326 320 320 323 323 323 323 324 324 327 326 324 323 323 323 323 323 323 323
281 281 282 283 285 286 286 286 286 287 289 295 302 291 297 297 300 312 320 324 324 322 319 318 317 317 319 318 321 325 325 323 323 323 323 324 324 323
278 280 281 281 282 283 284 284 284 284 285 286 286 286 287 291 297 300 306 307 319 318 315 307 310 309 312 309 309 314 318 319 320 322 322 323 323 323
277 278 278 279 280 280 281 282 282 283 284 284 284 285 285 287 296 301 297 299 301 297 301 303 296 299 298 299 299 301 303 306 309 311 318 319 318 318
276 276 277 278 278 278 279 280 281 282 282 283 284 284 284 285 285 287 286 291 294 298 289 292 292 294 293 292 293 293 295 299 299 300 304 314 315 314
275 275 275 275 276 276 277 277 278 279 280 282 283 283 283 283 284 284 284 283 284 288 286 290 292 293 292 289 288 291 292 292 293 295 296 301 305 306
273 273 273 274 274 274 274 275 276 278 279 279 280 281 282 283 283 284 284 284 283 283 286 289 290 291 292 290 288 286 288 290 290 292 292 294 296 299
273 273 273 273 273 273 273 273 274 275 276 278 279 279 280 281 281 283 284 284 285 284 283 285 286 286 287 287 287 286 285 286 287 287 287 288 288 290
273 273 273 273 273 272 273 272 272 273 274 275 276 278 279 279 280 280 282 283 284 284 284 284 284 284 285 284 284 283 283 284 283 285 285 284 285 286
273 273 273 272 273 272 272 272 272 272 273 274 274 275 277 277 279 279 280 281 282 283 284 284 284 284 283 284 285 283 283 282 282 282 283 283 284 284
273 273 272 272 272 272 271 271 271 271 272 272 273 273 275 276 277 278 278 279 280 280 281 282 283 287 286 283 281 284 284 284 283 283 283 282 282 282
273 272 272 272 271 271 271 271 270 270 271 271 272 272 273 275 275 276 276 277 278 279 279 279 280 282 286 287 282 281 283 283 283 284 284 283 283 282
271 271 271 271 271 271 270 271 270 270 270 270 271 271 272 273 274 274 275 275 276 277 278 278 278 278 281 282 283 281 280 283 283 283 283 281 281 281
269 269 269 269 269 269 269 270 270 269 269 269 269 270 270 271 272 272 273 273 274 275 276 277 277 277 279 281 284 281 280 279 280 282 282 283 282 282
267 267 267 267 267 267 268 268 269 269 269 269 269 269 269 270 271 271 271 272 273 273 273 274 276 277 279 280 281 280 280 279 278 278 279 279 281 284
264 264 265 265 265 265 265 266 267 267 267 267 268 268 268 269 269 270 270 270 271 271 271 273 274 276 278 278 278 280 279 279 279 279 277 276 278 279

GFSNE_925_thetae_138.txt.gz
Theta_e
292 293 294 295 296 298 300 301 304 308 309 312 316 317 320 326 329 328 326 328 328 329 331 331 329 327 328 332 332 332 331 330 329 328 328 328 328 328
289 289 290 292 294 296 298 300 302 305 307 309 311 315 316 320 326 328 326 326 328 327 328 329 328 328 327 327 331 332 331 331 331 329 328 328 328 328
287 287 287 288 292 291 294 297 301 303 306 306 308 311 314 319 319 320 326 327 328 328 328 328 328 327 327 326 328 331 331 331 331 331 330 329 329 329
285 285 285 287 287 289 292 295 299 300 303 305 306 308 311 314 318 321 325 325 327 328 328 328 329 328 328 327 327 330 329 331 330 330 330 330 329 329
283 284 284 284 286 288 291 294 297 299 302 304 306 307 308 311 313 319 322 325 326 325 320 328 328 328 328 328 326 325 325 325 329 330 329 329 329 328
281 281 282 283 285 286 287 287 290 294 298 301 304 306 307 309 313 317 321 323 325 325 323 319 328 329 328 328 328 327 326 324 326 329 329 329 329 328
279 279 280 281 282 284 284 284 286 287 293 297 303 305 303 298 297 296 305 313 323 326 325 325 327 327 327 327 326 326 325 325 324 325 329 329 328 328
278 277 278 279 280 282 283 283 284 285 287 291 289 290 289 287 288 289 296 310 318 317 316 326 325 323 323 323 324 324 323 323 323 323 323 328 329 328
276 277 277 278 279 279 281 282 282 283 284 285 285 285 286 285 286 288 294 298 305 300 306 317 319 319 318 317 317 318 320 321 322 322 322 322 327 327
276 277 277 277 278 278 278 279 280 281 283 283 283 283 284 285 285 286 288 293 299 294 294 295 301 305 307 308 307 308 309 310 313 318 321 317 321 323
276 276 277 277 277 277 277 278 278 279 280 281 281 282 282 283 285 285 285 287 294 289 286 285 292 294 296 295 296 296 298 299 302 305 308 308 312 314
275 275 276 277 277 277 276 276 277 277 278 279 279 280 281 281 283 284 285 285 285 285 285 285 289 290 294 292 291 292 294 293 295 296 298 301 303 308
276 275 275 276 276 276 275 276 276 276 276 277 278 278 278 280 280 282 283 285 284 285 284 284 287 287 289 292 290 288 288 290 291 292 293 294 296 298
276 275 275 275 275 275 274 275 275 275 275 275 276 277 277 278 278 279 280 283 282 282 282 284 285 285 286 288 289 286 286 286 287 288 288 290 291 292
276 276 275 275 275 274 274 273 273 274 274 274 274 275 276 277 277 277 278 280 281 281 280 281 284 285 286 285 286 285 284 285 285 285 286 286 287 289
275 274 274 274 274 274 273 273 272 273 273 273 273 274 275 275 276 276 276 277 279 279 280 279 281 284 283 284 284 285 285 284 284 284 284 284 284 285
274 273 273 273 272 272 272 272 272 272 272 272 272 272 273 274 274 275 275 275 277 277 278 278 278 279 283 283 282 282 284 285 285 285 284 283 283 283
272 272 271 271 271 271 271 271 271 271 271 271 271 271 272 272 273 273 273 274 275 275 276 275 276 277 278 281 282 281 281 282 284 284 284 285 283 282
271 271 270 270 269 269 269 269 270 270 269 270 270 270 271 271 272 272 272 272 273 274 274 274 274 275 276 278 280 281 280 280 282 284 282 282 281 281
269 269 269 268 267 267 267 268 268 268 268 268 268 269 269 270 270 271 270 271 271 272 272 272 272 273 274 276 278 281 281 279 280 280 281 282 282 282
267 267 267 266 266 265 266 266 266 266 266 266 266 267 267 269 269 269 269 269 270 270 270 270 271 271 273 276 278 279 281 280 279 279 279 280 282 284
265 265 265 264 264 263 264 264 264 264 263 263 264 264 265 267 268 269 269 268 269 269 269 269 269 270 272 274 276 277 278 280 280 280 278 278 278 279
264 263 264 263 262 262 262 263 262 262 261 261 262 262 263 265 267 268 268 268 268 268 268 268 268 269 271 272 273 274 276 278 279 280 279 278 279 280